Latitude: N 50° 09' 49" Longitude: W 05° 11' 53" Elevation: 168m ASL

There are 14 visitors online

Adverts

<- Previous Day | Today | Next Day ->

All Data for 11 October 2018

Time
A - D
Temp
A - D
Dew Point
A - D
Humidity
A - D
Pressure
A - D
Wind
A - D
Wind Dir Gust
A - D
Rain Rate
A - D
Rain Total
00:00 14.4 13.8 96 1000.1 9.2 S 14.5 0.0 0.4
00:01 14.4 13.8 96 1000.0 9.2 S 14.5 0.0 0.0
00:02 14.4 13.8 96 1000.1 9.2 S 13.0 0.0 0.0
00:03 14.4 13.8 96 999.8 9.2 S 12.1 0.0 0.0
00:05 14.4 13.8 96 999.9 9.2 S 12.1 0.0 0.0
00:06 14.4 13.8 96 1000.0 6.9 S 12.1 0.0 0.0
00:07 14.4 13.8 96 999.8 7.6 SE 12.1 0.0 0.0
00:08 14.4 13.8 96 999.8 9.2 S 11.4 0.0 0.0
00:09 14.4 13.8 96 999.8 9.2 NE 9.8 0.0 0.0
00:10 14.4 13.8 96 999.7 10.7 E 11.4 0.0 0.0
00:11 14.4 13.8 96 999.8 10.7 S 11.4 0.0 0.0
00:12 14.4 13.8 96 999.8 10.7 SE 11.4 0.0 0.0
00:13 14.3 13.7 96 999.9 9.2 SE 11.4 0.0 0.0
00:14 14.4 13.8 96 999.9 9.8 SE 11.4 0.0 0.0
00:15 14.4 13.8 96 999.9 9.8 SE 11.4 0.0 0.0
00:16 14.4 13.8 96 1000.0 12.1 SE 12.1 0.0 0.0
00:17 14.3 13.7 96 1000.0 10.7 SE 12.1 0.0 0.0
00:18 14.3 13.7 96 1000.0 11.4 SE 12.1 0.0 0.0
00:19 14.3 13.7 96 999.9 9.2 SE 12.1 0.0 0.0
00:20 14.3 13.7 96 1000.0 10.7 S 13.6 0.0 0.0
00:21 14.3 13.7 96 1000.0 8.3 SE 13.6 0.0 0.0
00:22 14.3 13.7 96 1000.0 11.4 SE 13.6 0.0 0.0
00:24 14.2 13.6 96 1000.1 11.4 SE 13.6 0.0 0.0
00:25 14.3 13.7 96 999.9 11.4 SE 13.6 0.0 0.0
00:26 14.4 13.8 96 1000.1 9.8 SE 13.6 0.0 0.0
00:27 14.3 13.7 96 1000.0 8.3 SE 13.6 0.0 0.0
00:28 14.3 13.7 96 1000.1 11.4 SSE 13.6 0.0 0.0
00:29 14.4 13.8 96 1000.0 10.7 SE 13.6 0.0 0.0
00:30 14.4 13.8 96 1000.0 9.8 SE 11.4 0.0 0.0
00:31 14.4 13.8 96 1000.1 10.7 SE 11.4 0.0 0.0
00:32 14.4 13.8 96 1000.1 10.7 SE 11.4 0.0 0.0
00:33 14.4 13.8 96 1000.0 9.2 SE 11.4 0.0 0.0
00:34 14.4 13.8 96 1000.0 10.7 SE 11.4 0.0 0.0
00:35 14.4 13.8 96 1000.0 10.7 SE 11.4 0.0 0.0
00:36 14.5 14.0 97 1000.1 9.2 SSE 11.4 0.0 0.0
00:37 14.5 14.0 97 1000.0 14.5 E 14.5 0.0 0.0
00:38 14.5 14.0 97 1000.0 12.1 S 14.5 0.0 0.0
00:39 14.5 14.0 97 1000.2 12.1 S 14.5 0.0 0.0
00:40 14.5 13.9 96 1000.0 9.2 S 14.5 0.0 0.0
00:41 14.5 14.0 97 1000.3 10.7 E 14.5 0.0 0.0
00:43 14.5 14.0 97 1000.1 8.3 SE 14.5 0.0 0.0
00:44 14.6 14.1 97 1000.0 7.6 SE 14.5 0.0 0.0
00:45 14.6 14.1 97 1000.0 8.3 E 14.5 0.0 0.0
00:46 14.6 14.1 97 1000.0 8.3 SE 14.5 0.0 0.0
00:47 14.6 14.1 97 1000.0 8.3 S 13.6 0.0 0.0
00:48 14.6 14.1 97 999.9 8.3 SW 13.6 0.0 0.0
00:49 14.6 14.1 97 1000.0 10.7 SE 13.6 0.0 0.0
00:50 14.6 14.1 97 999.8 9.8 S 13.6 0.0 0.0
00:51 14.6 14.1 97 999.8 9.2 SE 13.6 0.0 0.0
00:52 14.6 14.1 97 999.8 8.3 S 13.6 0.0 0.0
00:53 14.6 14.1 97 999.8 7.6 SW 13.6 0.0 0.0
00:54 14.6 14.1 97 999.8 9.8 SE 13.6 0.0 0.0
00:55 14.6 14.1 97 999.8 7.6 NE 13.6 0.0 0.0
00:56 14.6 14.1 97 999.7 6.9 S 13.6 0.0 0.0
00:57 14.6 14.1 97 999.8 12.1 SE 13.6 0.0 0.0
00:58 14.6 14.1 97 999.9 11.4 SE 13.6 0.0 0.0
00:59 14.6 14.1 97 999.7 8.3 S 13.6 0.0 0.0
01:00 14.6 14.1 97 999.6 5.4 S 13.6 0.0 0.0
01:01 14.6 14.1 97 999.8 5.4 S 12.1 0.0 0.0
01:02 14.5 13.9 96 999.6 9.2 SE 12.1 0.0 0.0
01:03 14.5 13.9 96 999.7 9.2 SE 12.1 0.0 0.0
01:04 14.5 13.9 96 999.5 8.3 SE 12.1 0.0 0.0
01:05 14.5 13.9 96 999.7 5.4 SE 12.1 0.0 0.0
01:06 14.5 13.9 96 999.5 6.9 S 12.1 0.0 0.0
01:07 14.5 13.9 96 999.5 8.3 SE 12.1 0.0 0.0
01:08 14.5 13.9 96 999.6 10.7 SE 10.7 0.0 0.0
01:09 14.4 13.8 96 999.6 8.3 E 10.7 0.0 0.0
01:10 14.5 13.9 96 999.6 6.9 SE 10.7 0.0 0.0
01:12 14.4 13.8 96 999.5 9.2 E 10.7 0.0 0.0
01:13 14.4 13.8 96 999.5 8.3 SE 10.7 0.0 0.0
01:14 14.4 13.8 96 999.5 8.3 SE 10.7 0.0 0.0
01:15 14.4 13.8 96 999.5 9.8 SE 10.7 0.0 0.0
01:16 14.4 13.8 96 999.6 6.9 E 10.7 0.0 0.0
01:17 14.4 13.8 96 999.4 9.8 SE 10.7 0.0 0.0
01:18 14.4 13.8 96 999.5 8.3 S 9.8 0.0 0.0
01:19 14.4 13.8 96 999.4 11.4 SE 11.4 0.0 0.0
01:20 14.4 13.8 96 999.5 9.2 SE 11.4 0.0 0.0
01:21 14.4 13.9 97 999.4 11.4 SE 11.4 0.0 0.0
01:22 14.4 13.9 97 999.4 11.4 SE 11.4 0.0 0.0
01:23 14.4 13.8 96 999.5 11.4 SE 11.4 0.0 0.0
01:24 14.5 13.9 96 999.3 9.8 S 11.4 0.0 0.0
01:25 14.5 13.9 96 999.3 6.9 SE 11.4 0.0 0.0
01:26 14.5 13.9 96 999.4 8.3 SE 11.4 0.0 0.0
01:27 14.5 14.0 97 999.3 8.3 E 11.4 0.0 0.0
01:28 14.5 14.0 97 999.4 7.6 SE 11.4 0.0 0.0
01:29 14.5 14.0 97 999.4 8.3 SE 11.4 0.0 0.0
01:31 14.5 14.0 97 999.3 10.7 E 11.4 0.0 0.0
01:32 14.5 14.0 97 999.4 9.2 NW 11.4 0.0 0.0
01:33 14.5 14.0 97 999.4 13.6 SE 13.6 0.0 0.0
01:34 14.5 14.0 97 999.3 8.3 S 13.6 0.0 0.0
01:35 14.5 14.0 97 999.2 7.6 S 13.6 0.0 0.0
01:36 14.5 14.0 97 999.3 6.9 N 13.6 0.0 0.0
01:37 14.6 14.1 97 999.2 6.9 E 14.5 0.0 0.0
01:38 14.5 14.0 97 999.3 5.4 SE 14.5 0.0 0.0
01:39 14.6 14.1 97 999.2 9.2 SE 14.5 0.0 0.0
01:40 14.5 14.0 97 999.0 10.7 E 14.5 0.0 0.0
01:41 14.6 14.1 97 999.0 9.8 SSE 14.5 0.0 0.0
01:42 14.5 14.0 97 999.1 6.9 SE 14.5 0.0 0.0
01:43 14.5 14.0 97 999.1 6.9 SE 14.5 0.0 0.0
01:44 14.6 14.1 97 999.1 13.0 ENE 14.5 0.0 0.0
01:45 14.5 14.0 97 999.1 8.3 SE 14.5 0.0 0.0
01:46 14.5 14.0 97 998.9 10.7 SE 14.5 0.0 0.0
01:47 14.6 14.1 97 998.9 10.7 E 14.5 0.0 0.0
01:48 14.6 14.1 97 998.9 7.6 SE 13.0 0.0 0.0
01:49 14.6 14.1 97 998.9 5.4 N 13.0 0.0 0.0
01:50 14.5 14.0 97 998.8 9.2 SE 13.0 0.0 0.0
01:51 14.6 14.1 97 999.0 9.2 S 13.0 0.0 0.0
01:52 14.6 14.1 97 998.9 6.0 SE 13.0 0.0 0.0
01:53 14.6 14.1 97 999.0 6.0 SE 13.0 0.0 0.0
01:54 14.6 14.1 97 999.1 7.6 S 10.7 0.0 0.0
01:55 14.6 14.1 97 999.0 11.4 S 11.4 0.0 0.0
01:56 14.6 14.1 97 999.1 9.8 SE 11.4 0.0 0.0
01:57 14.6 14.1 97 999.1 14.5 S 14.5 0.0 0.0
01:58 14.6 14.1 97 999.0 13.0 SE 14.5 0.0 0.0
01:59 14.6 14.1 97 998.8 6.9 SE 14.5 0.0 0.0
02:00 14.6 14.1 97 998.9 6.9 SW 14.5 0.0 0.0
02:01 14.6 14.1 97 998.9 9.2 SE 14.5 0.0 0.0
02:02 14.6 14.1 97 998.9 9.2 SE 14.5 0.0 0.0
02:03 14.6 14.1 97 998.9 4.5 SE 14.5 0.0 0.0
02:04 14.6 14.1 97 998.7 7.6 E 14.5 0.0 0.0
02:05 14.6 14.1 97 998.7 5.4 WNW 14.5 0.0 0.0
02:06 14.6 14.1 97 998.7 7.6 SE 14.5 0.0 0.0
02:07 14.6 14.1 97 998.4 4.5 NE 14.5 0.0 0.0
02:08 14.6 14.1 97 998.5 5.4 SE 13.0 0.0 0.0
02:09 14.6 14.1 97 998.5 6.9 NW 9.2 0.0 0.0
02:10 14.6 14.1 97 998.4 9.2 ESE 9.2 0.0 0.0
02:11 14.6 14.1 97 998.5 6.0 SE 9.2 0.0 0.0
02:12 14.6 14.1 97 998.5 6.9 SE 9.2 0.0 0.0
02:13 14.6 14.1 97 998.6 6.0 SE 11.4 0.0 0.0
02:14 14.6 14.1 97 998.5 7.6 E 11.4 0.0 0.0
02:15 14.6 14.1 97 998.7 9.8 SE 11.4 0.0 0.0
02:16 14.5 14.0 97 998.8 12.1 S 12.1 0.0 0.0
02:17 14.5 14.0 97 998.8 8.3 S 12.1 0.0 0.0
02:18 14.6 14.1 97 998.9 9.2 SSW 12.1 0.0 0.0
02:19 14.6 14.1 97 998.8 7.6 S 12.1 0.0 0.0
02:20 14.5 14.0 97 998.8 7.6 E 12.1 0.0 0.0
02:21 14.6 14.1 97 998.9 6.0 SE 12.1 0.0 0.0
02:22 14.6 14.1 97 998.9 6.0 SE 12.1 0.0 0.0
02:23 14.6 14.1 97 998.8 8.3 SE 12.1 0.0 0.0
02:24 14.6 14.1 97 998.8 9.2 SSE 12.1 0.0 0.0
02:25 14.5 14.0 97 998.8 11.4 SE 12.1 0.0 0.0
02:26 14.6 14.1 97 998.7 9.2 S 12.1 0.0 0.0
02:27 14.5 14.0 97 998.8 13.6 SE 13.6 0.0 0.0
02:28 14.5 14.0 97 999.0 9.2 SE 13.6 0.0 0.0
02:29 14.5 14.0 97 998.7 8.3 SE 13.6 0.0 0.0
02:30 14.5 14.0 97 998.8 10.7 SE 13.6 0.0 0.0
02:31 14.5 14.0 97 998.6 6.9 SE 13.6 0.0 0.0
02:32 14.5 14.0 97 998.4 7.6 SE 13.6 0.0 0.0
02:33 14.5 14.0 97 998.5 9.8 SE 13.6 0.0 0.0
02:34 14.5 14.0 97 998.6 9.2 SE 13.6 0.0 0.0
02:35 14.5 14.0 97 998.7 9.8 SE 13.6 0.0 0.0
02:36 14.5 14.0 97 998.7 6.9 N 13.6 0.0 0.0
02:37 14.5 14.0 97 998.6 9.8 SE 10.7 0.0 0.0
02:38 14.5 14.0 97 998.6 7.6 SE 10.7 0.0 0.0
02:39 14.5 14.0 97 998.5 7.6 NE 10.7 0.0 0.0
02:40 14.5 14.0 97 998.6 9.2 S 9.8 0.0 0.0
02:41 14.5 14.0 97 998.7 5.4 SW 9.8 0.0 0.0
02:42 14.5 14.0 97 998.8 9.2 SE 9.8 0.0 0.0
02:43 14.5 14.0 97 998.8 12.1 E 12.1 0.0 0.0
02:44 14.5 14.0 97 998.7 9.2 SE 12.1 0.0 0.0
02:45 14.5 14.0 97 998.5 9.8 ESE 12.1 0.0 0.0
02:46 14.5 14.0 97 998.6 6.9 E 12.1 0.0 0.0
02:47 14.5 14.0 97 998.6 5.4 SE 12.1 0.0 0.0
02:48 14.5 14.0 97 998.6 6.9 N 12.1 0.0 0.0
02:49 14.5 14.0 97 998.6 8.3 S 12.1 0.0 0.0
02:50 14.5 14.0 97 998.4 8.3 SE 12.1 0.0 0.0
02:51 14.5 14.0 97 998.4 6.9 SE 12.1 0.0 0.0
02:52 14.5 14.0 97 998.6 6.0 SE 12.1 0.0 0.0
02:53 14.5 14.0 97 998.7 10.7 ENE 10.7 0.0 0.0
02:54 14.5 14.0 97 998.5 7.6 E 10.7 0.0 0.0
02:55 14.5 14.0 97 998.5 13.0 SE 13.0 0.0 0.0
02:56 14.5 14.0 97 998.4 8.3 E 13.0 0.0 0.0
02:57 14.5 14.0 97 998.5 9.2 SE 13.0 0.0 0.0
02:58 14.5 14.0 97 998.5 7.6 ESE 13.0 0.0 0.0
02:59 14.5 14.0 97 998.6 13.0 SE 13.0 0.0 0.0
03:00 14.5 14.0 97 998.6 8.3 SE 13.0 0.0 0.0
03:01 14.5 14.0 97 998.5 8.3 SE 13.0 0.0 0.0
03:02 14.5 14.0 97 998.4 8.3 SE 13.0 0.0 0.0
03:03 14.5 14.0 97 998.4 8.3 SE 13.0 0.0 0.0
03:04 14.5 14.0 97 998.4 8.3 SE 13.0 0.0 0.0
03:05 14.5 14.0 97 998.4 8.3 SE 13.0 0.0 0.0
03:06 14.5 14.0 97 998.5 11.4 SE 13.0 0.0 0.0
03:07 14.5 14.0 97 998.5 11.4 SE 13.0 0.0 0.0
03:08 14.5 14.0 97 998.5 10.7 E 13.6 0.0 0.0
03:09 14.5 14.0 97 998.4 11.4 SE 13.6 0.0 0.0
03:11 14.5 14.0 97 998.3 8.3 SE 13.6 0.0 0.0
03:12 14.5 14.2 98 998.4 15.2 SE 15.2 0.0 0.0
03:13 14.5 14.2 98 998.4 9.8 SE 15.2 0.0 0.0
03:14 14.5 14.2 98 998.3 9.2 SE 15.2 0.0 0.0
03:15 14.5 14.2 98 998.5 11.4 SE 15.2 0.0 0.0
03:16 14.6 14.3 98 998.4 14.5 E 15.2 0.0 0.0
03:17 14.5 14.2 98 998.3 12.1 SE 15.2 0.0 0.0
03:18 14.5 14.2 98 998.3 12.1 S 15.2 0.0 0.0
03:19 14.5 14.2 98 998.3 12.1 SE 15.2 0.0 0.0
03:20 14.6 14.3 98 998.2 12.1 E 15.2 0.0 0.0
03:21 14.6 14.3 98 998.2 14.5 S 15.2 0.0 0.0
03:22 14.6 14.3 98 998.2 14.5 S 15.2 0.0 0.0
03:23 14.5 14.2 98 998.2 16.8 E 16.8 0.0 0.0
03:24 14.5 14.2 98 998.2 13.6 SE 16.8 0.0 0.0
03:25 14.5 14.2 98 998.0 7.6 SE 16.8 0.0 0.0
03:26 14.6 14.3 98 998.0 15.2 SE 16.8 0.0 0.0
03:27 14.5 14.2 98 998.1 17.4 SE 17.4 0.0 0.0
03:28 14.6 14.3 98 998.0 10.7 SSW 17.4 0.0 0.0
03:29 14.5 14.2 98 998.0 13.0 SE 17.4 0.0 0.0
03:30 14.5 14.2 98 998.0 12.1 SSE 17.4 0.0 0.0
03:31 14.5 14.2 98 998.1 9.8 S 17.4 0.0 0.0
03:32 14.5 14.2 98 998.0 11.4 SE 17.4 0.0 0.0
03:33 14.5 14.2 98 998.1 17.4 S 17.4 0.0 0.0
03:34 14.5 14.2 98 998.0 13.6 SE 17.4 0.0 0.0
03:35 14.5 14.2 98 997.9 10.7 SE 17.4 0.0 0.0
03:36 14.5 14.2 98 998.0 13.0 E 17.4 0.0 0.0
03:37 14.5 14.2 98 997.9 15.9 SE 17.4 0.0 0.0
03:38 14.5 14.2 98 997.9 15.2 SE 17.4 0.0 0.0
03:39 14.5 14.2 98 997.9 15.9 SE 17.4 0.0 0.0
03:40 14.5 14.2 98 997.9 11.4 SE 17.4 0.0 0.0
03:41 14.5 14.2 98 997.9 11.4 S 17.4 0.0 0.0
03:42 14.5 14.2 98 997.8 15.9 SE 17.4 0.0 0.0
03:43 14.5 14.2 98 997.8 13.0 S 17.4 0.0 0.0
03:44 14.5 14.2 98 997.8 7.6 SE 15.9 0.0 0.0
03:45 14.5 14.2 98 997.9 9.8 SE 15.9 0.0 0.0
03:46 14.5 14.2 98 997.7 12.1 SE 15.9 0.0 0.0
03:47 14.5 14.2 98 997.9 8.3 SE 15.9 0.0 0.0
03:48 14.5 14.2 98 997.7 17.4 SE 17.4 0.0 0.0
03:49 14.5 14.2 98 997.7 12.1 SE 17.4 0.0 0.0
03:50 14.5 14.2 98 997.7 13.6 SE 17.4 0.0 0.0
03:51 14.5 14.2 98 997.8 15.2 E 17.4 0.0 0.0
03:52 14.5 14.2 98 997.9 13.0 SE 17.4 0.0 0.0
03:53 14.5 14.2 98 997.9 13.0 SE 17.4 0.0 0.0
03:54 14.5 14.2 98 997.8 14.5 SE 17.4 0.0 0.0
03:55 14.5 14.2 98 997.8 12.1 E 17.4 0.0 0.0
03:56 14.5 14.2 98 997.7 14.5 SE 17.4 0.0 0.0
03:57 14.5 14.2 98 997.8 15.9 E 17.4 0.0 0.0
03:58 14.5 14.2 98 997.6 11.4 SE 17.4 0.0 0.0
03:59 14.5 14.2 98 997.5 10.7 SE 15.9 0.0 0.0
04:00 14.5 14.2 98 997.6 9.2 S 15.9 0.0 0.0
04:01 14.5 14.2 98 997.6 9.2 S 15.9 0.0 0.0
04:02 14.5 14.2 98 997.5 9.8 SE 15.9 0.0 0.0
04:03 14.5 14.2 98 997.8 10.7 SE 15.9 0.0 0.0
04:04 14.5 14.2 98 997.7 10.7 S 15.9 0.0 0.0
04:05 14.5 14.2 98 997.7 12.1 SE 15.9 0.0 0.0
04:06 14.5 14.2 98 997.6 12.1 SE 15.9 0.0 0.0
04:07 14.5 14.2 98 997.7 13.6 S 15.9 0.0 0.0
04:08 14.5 14.2 98 997.6 11.4 SE 13.6 0.0 0.0
04:09 14.5 14.2 98 997.6 14.5 E 14.5 0.0 0.0
04:10 14.5 14.2 98 997.6 9.8 SE 14.5 0.0 0.0
04:11 14.5 14.2 98 997.6 14.5 SE 14.5 0.0 0.0
04:12 14.5 14.2 98 997.6 10.7 NE 14.5 0.0 0.0
04:13 14.5 14.2 98 997.5 13.6 SE 14.5 0.0 0.0
04:14 14.5 14.2 98 997.6 13.6 SE 14.5 0.0 0.0
04:15 14.5 14.4 99 997.4 13.6 SE 14.5 0.0 0.0
04:16 14.5 14.4 99 997.5 12.1 S 14.5 0.0 0.0
04:17 14.5 14.4 99 997.6 14.5 S 14.5 0.0 0.0
04:18 14.5 14.4 99 997.5 10.7 SE 14.5 0.0 0.0
04:19 14.5 14.2 98 997.5 13.6 S 14.5 0.0 0.0
04:20 14.5 14.2 98 997.5 16.8 SE 16.8 0.0 0.0
04:21 14.5 14.4 99 997.6 13.0 S 16.8 0.0 0.0
04:22 14.5 14.4 99 997.6 8.3 NNE 16.8 0.0 0.0
04:23 14.4 14.3 99 997.5 11.4 SE 16.8 0.0 0.0
04:24 14.4 14.3 99 997.5 15.2 SE 16.8 0.0 0.0
04:25 14.4 14.3 99 997.5 15.9 SE 16.8 0.0 0.0
04:26 14.4 14.3 99 997.4 15.9 S 16.8 0.0 0.0
04:27 14.4 14.3 99 997.5 12.1 S 16.8 0.0 0.0
04:28 14.4 14.3 99 997.3 13.6 SE 16.8 0.0 0.0
04:29 14.4 14.3 99 997.4 15.2 SE 16.8 0.0 0.0
04:30 14.4 14.3 99 997.4 15.9 SE 15.9 0.0 0.0
04:31 14.4 14.3 99 997.2 15.2 SE 15.9 0.0 0.0
04:32 14.4 14.3 99 997.2 12.1 SE 15.9 0.0 0.0
04:33 14.4 14.3 99 997.4 13.6 S 15.9 0.0 0.0
04:34 14.4 14.3 99 997.3 13.6 SE 15.9 0.0 0.0
04:35 14.4 14.3 99 997.2 12.1 SE 15.9 0.0 0.0
04:36 14.4 14.3 99 997.3 16.8 E 16.8 0.0 0.0
04:37 14.3 14.2 99 997.3 17.4 S 17.4 0.0 0.0
04:38 14.3 14.2 99 997.2 17.4 SE 17.4 0.0 0.0
04:39 14.3 14.2 99 997.2 16.8 SE 17.4 0.0 0.0
04:40 14.3 14.2 99 997.3 11.4 SE 17.4 0.0 0.0
04:41 14.3 14.2 99 997.4 13.0 SE 17.4 0.0 0.0
04:42 14.3 14.2 99 997.4 13.6 SE 17.4 0.0 0.0
04:43 14.3 14.2 99 997.3 12.1 SE 17.4 0.0 0.0
04:44 14.3 14.2 99 997.3 13.6 SE 17.4 0.0 0.0
04:45 14.3 14.2 99 997.5 14.5 S 17.4 0.0 0.0
04:46 14.3 14.2 99 997.4 15.2 SE 17.4 0.0 0.0
04:47 14.3 14.2 99 997.5 12.1 SW 17.4 0.0 0.0
04:48 14.3 14.2 99 997.3 15.9 S 16.8 0.0 0.0
04:49 14.3 14.2 99 997.5 15.2 SE 15.9 0.0 0.0
04:50 14.3 14.2 99 997.4 12.1 SE 15.9 0.0 0.0
04:51 14.3 14.2 99 997.4 15.2 SE 15.9 0.0 0.0
04:52 14.3 14.2 99 997.3 13.6 S 15.9 0.0 0.0
04:53 14.3 14.2 99 997.4 9.8 SSE 15.9 0.0 0.0
04:54 14.3 14.2 99 997.4 17.4 E 17.4 0.0 0.0
04:55 14.3 14.2 99 997.3 12.1 SE 17.4 0.0 0.0
04:56 14.3 14.2 99 997.4 12.1 SE 17.4 0.0 0.0
04:57 14.3 14.2 99 997.3 15.9 SE 17.4 0.0 0.0
04:58 14.3 14.2 99 997.4 13.0 SE 17.4 0.0 0.0
04:59 14.3 14.2 99 997.5 15.2 SE 17.4 0.0 0.0
05:00 14.3 14.2 99 997.4 13.0 SE 17.4 0.0 0.0
05:01 14.3 14.2 99 997.4 13.0 SE 17.4 0.0 0.0
05:02 14.3 14.2 99 997.5 19.0 SE 19.0 0.0 0.0
05:03 14.3 14.2 99 997.3 10.7 S 19.0 0.0 0.0
05:04 14.3 14.2 99 997.4 15.9 S 19.0 0.0 0.0
05:05 14.3 14.2 99 997.3 13.0 NE 19.0 0.0 0.0
05:06 14.3 14.2 99 997.4 11.4 SE 19.0 0.0 0.0
05:07 14.3 14.2 99 997.4 10.7 SE 19.0 0.0 0.0
05:08 14.3 14.2 99 997.4 15.2 SE 19.0 0.0 0.0
05:09 14.2 14.1 99 997.3 11.4 S 19.0 0.0 0.0
05:10 14.2 14.1 99 997.4 16.8 SE 19.0 0.0 0.0
05:11 14.3 14.2 99 997.4 14.5 SE 19.0 0.0 0.0
05:12 14.3 14.2 99 997.5 13.0 SE 16.8 0.0 0.0
05:13 14.3 14.2 99 997.3 17.4 SE 17.4 0.0 0.0
05:14 14.3 14.2 99 997.4 11.4 S 17.4 0.0 0.0
05:15 14.3 14.2 99 997.4 13.0 SE 17.4 0.0 0.0
05:16 14.3 14.2 99 997.5 9.8 SE 17.4 0.0 0.0
05:17 14.3 14.2 99 997.4 13.6 SE 17.4 0.0 0.0
05:18 14.3 14.2 99 997.4 13.6 SE 17.4 0.0 0.0
05:19 14.3 14.2 99 997.4 11.4 SE 17.4 0.0 0.0
05:20 14.3 14.2 99 997.5 10.7 S 17.4 0.0 0.0
05:21 14.2 14.1 99 997.4 13.6 SW 17.4 0.0 0.0
05:22 14.3 14.2 99 997.4 16.8 SE 17.4 0.0 0.0
05:23 14.3 14.2 99 997.4 19.7 SE 19.7 0.0 0.0
05:24 14.3 14.2 99 997.3 12.1 S 20.6 0.0 0.0
05:25 14.3 14.2 99 997.3 13.6 S 20.6 0.0 0.0
05:26 14.2 14.1 99 997.3 16.8 SE 20.6 0.0 0.0
05:27 14.3 14.2 99 997.3 11.4 E 20.6 0.0 0.0
05:28 14.3 14.2 99 997.2 9.2 S 20.6 0.0 0.0
05:29 14.3 14.2 99 997.5 12.1 S 20.6 0.0 0.0
05:30 14.3 14.2 99 997.3 13.6 SE 20.6 0.0 0.0
05:31 14.3 14.2 99 997.2 13.0 SE 20.6 0.0 0.0
05:32 14.3 14.2 99 997.3 13.0 S 20.6 0.0 0.0
05:33 14.3 14.2 99 997.2 10.7 NE 20.6 0.0 0.0
05:34 14.3 14.2 99 997.3 12.1 E 16.8 0.0 0.0
05:35 14.4 14.3 99 997.2 13.0 SE 16.8 0.0 0.0
05:36 14.3 14.2 99 997.2 13.0 E 13.6 0.0 0.0
05:37 14.3 14.2 99 997.3 13.0 E 13.6 0.0 0.0
05:38 14.3 14.2 99 997.2 11.4 S 13.6 0.0 0.0
05:39 14.4 14.3 99 997.2 15.2 SE 15.2 0.0 0.0
05:40 14.3 14.2 99 997.2 16.8 SE 16.8 0.0 0.0
05:41 14.3 14.2 99 997.1 15.9 SE 16.8 0.0 0.0
05:42 14.3 14.2 99 997.1 14.5 SE 16.8 0.0 0.0
05:43 14.3 14.2 99 997.2 10.7 SE 16.8 0.0 0.0
05:44 14.3 14.2 99 997.2 13.6 SE 16.8 0.0 0.0
05:45 14.3 14.2 99 997.2 13.6 SE 16.8 0.0 0.0
05:46 14.2 14.1 99 997.0 13.6 SE 16.8 0.0 0.0
05:47 14.3 14.2 99 997.1 10.7 SE 16.8 0.0 0.0
05:48 14.3 14.2 99 997.2 11.4 SE 16.8 0.0 0.0
05:49 14.3 14.2 99 997.1 12.1 SE 16.8 0.0 0.0
05:50 14.3 14.2 99 997.2 9.8 SE 15.9 0.0 0.0
05:51 14.3 14.2 99 997.2 9.8 S 15.2 0.0 0.0
05:52 14.3 14.2 99 997.2 15.2 SE 15.2 0.0 0.0
05:53 14.3 14.2 99 997.1 15.9 ESE 15.9 0.0 0.0
05:54 14.3 14.2 99 997.2 13.6 E 15.9 0.0 0.0
05:55 14.3 14.2 99 997.1 12.1 SW 15.9 0.0 0.0
05:56 14.3 14.2 99 997.2 15.9 SE 15.9 0.0 0.0
05:57 14.3 14.2 99 997.1 13.0 S 15.9 0.0 0.0
05:58 14.3 14.2 99 997.1 8.3 SE 15.9 0.0 0.0
05:59 14.3 14.2 99 997.1 8.3 SE 15.9 0.0 0.0
06:00 14.3 14.2 99 997.2 10.7 S 15.9 0.0 0.0
06:01 14.3 14.2 99 997.2 10.7 S 15.9 0.0 0.0
06:02 14.3 14.2 99 997.3 10.7 S 15.9 0.0 0.0
06:03 14.3 14.2 99 997.2 10.7 S 15.9 0.0 0.0
06:04 14.3 14.2 99 997.2 10.7 S 15.9 0.0 0.0
06:05 14.3 14.2 99 997.1 10.7 S 15.9 0.0 0.0
06:06 14.4 14.3 99 997.2 10.7 S 18.3 0.0 0.0
06:07 14.4 14.3 99 997.1 13.6 S 18.3 0.0 0.0
06:08 14.3 14.2 99 997.2 13.0 SE 18.3 0.0 0.0
06:09 14.4 14.3 99 997.2 15.2 S 18.3 0.0 0.0
06:10 14.4 14.3 99 997.1 13.0 SE 18.3 0.0 0.0
06:11 14.3 14.2 99 997.2 10.7 S 18.3 0.0 0.0
06:12 14.4 14.3 99 997.1 15.9 SE 18.3 0.0 0.0
06:13 14.4 14.3 99 997.1 12.1 S 18.3 0.0 0.0
06:14 14.4 14.3 99 997.0 16.8 S 18.3 0.0 0.0
06:15 14.4 14.3 99 997.0 16.8 S 18.3 0.0 0.0
06:16 14.4 14.3 99 997.2 16.8 SE 18.3 0.0 0.0
06:17 14.4 14.3 99 997.0 18.3 SE 18.3 0.0 0.0
06:18 14.4 14.3 99 997.1 13.6 S 18.3 0.0 0.0
06:19 14.4 14.3 99 997.2 13.0 NW 18.3 0.0 0.0
06:20 14.4 14.3 99 997.1 14.5 SE 18.3 0.0 0.0
06:21 14.4 14.3 99 997.1 14.5 SE 18.3 0.0 0.0
06:22 14.4 14.3 99 997.0 13.0 E 18.3 0.0 0.0
06:23 14.4 14.3 99 997.0 13.6 S 18.3 0.0 0.0
06:25 14.4 14.3 99 997.0 11.4 S 18.3 0.0 0.2
06:26 14.4 14.3 99 997.2 16.8 SE 18.3 2.3 0.4
06:27 14.4 14.3 99 997.1 20.6 SE 20.6 5.3 0.8
06:28 14.4 14.3 99 997.1 18.3 SSE 20.6 9.1 1.4
06:29 14.4 14.3 99 997.1 22.1 SE 28.2 22.7 2.2
06:30 14.3 14.2 99 997.0 19.7 S 28.2 26.4 2.5
06:31 14.3 14.2 99 997.0 19.7 SE 28.2 27.2 2.6
06:32 14.3 14.2 99 997.1 25.1 SE 28.2 25.7 2.8
06:33 14.3 14.2 99 997.3 19.7 S 28.2 27.9 3.3
06:34 14.3 14.2 99 997.3 19.7 S 28.2 16.6 3.3
06:35 14.2 14.1 99 997.1 22.1 S 28.2 14.4 3.4
06:36 14.2 14.1 99 996.9 18.3 SW 28.2 18.1 4.0
06:37 14.2 14.1 99 997.2 16.8 S 28.2 18.1 4.1
06:38 14.1 14.0 99 997.2 25.1 E 28.2 14.4 4.3
06:39 14.1 14.0 99 997.2 30.4 S 30.4 14.4 4.5
06:40 14.1 14.0 99 997.4 23.5 S 32.7 18.1 4.9
06:41 14.1 14.0 99 997.5 22.1 SE 32.7 13.6 5.1
06:42 14.1 14.0 99 997.3 25.1 SE 32.7 14.4 5.3
06:44 14.0 13.9 99 997.3 26.6 E 32.7 13.6 5.6
06:45 14.0 13.9 99 997.5 18.3 SE 32.7 9.1 5.7
06:46 14.0 13.9 99 997.3 17.4 SSW 32.7 7.6 5.8
06:47 14.0 13.9 99 997.5 26.6 E 32.7 6.0 5.9
06:48 14.0 13.9 99 997.5 25.1 SE 32.7 6.0 5.9
06:49 13.9 13.8 99 997.3 18.3 S 32.7 3.8 6.0
06:50 14.0 13.9 99 997.3 21.3 SE 27.3 3.8 6.0
06:51 13.9 13.8 99 997.3 19.0 SW 27.3 3.8 6.0
06:52 13.9 13.8 99 997.4 22.1 SE 27.3 3.8 6.1
06:53 13.9 13.8 99 997.4 25.9 S 26.6 3.0 6.2
06:54 13.9 13.8 99 997.5 19.7 NE 26.6 3.0 6.2
06:55 13.9 13.8 99 997.4 22.8 SE 26.6 3.0 6.2
06:56 13.9 13.8 99 997.6 16.8 S 26.6 3.0 6.3
06:57 13.9 13.8 99 997.5 19.7 S 26.6 2.3 6.3
06:58 13.9 13.8 99 997.6 24.4 SE 25.9 2.3 6.4
06:59 13.9 13.8 99 997.5 15.2 S 25.9 2.3 6.4
07:00 13.9 13.8 99 997.5 24.4 S 25.9 2.3 6.4
07:01 13.9 13.8 99 997.5 24.4 S 25.9 1.5 6.4
07:02 13.8 13.7 99 997.5 20.6 SE 25.9 3.0 6.6
07:03 13.8 13.7 99 997.6 22.8 S 24.4 3.0 6.6
07:04 13.8 13.7 99 997.5 22.1 S 24.4 3.8 6.7
07:05 13.8 13.7 99 997.6 22.1 S 24.4 3.8 6.7
07:06 13.8 13.7 99 997.6 18.3 SE 24.4 4.5 6.8
07:07 13.8 13.7 99 997.6 20.6 SE 24.4 3.0 6.8
07:09 13.8 13.7 99 997.8 13.0 SE 24.4 3.0 7.0
07:10 13.8 13.7 99 997.5 19.7 S 24.4 3.0 7.1
07:11 13.8 13.7 99 997.6 17.4 S 23.5 3.0 7.1
07:12 13.8 13.7 99 997.5 19.0 S 23.5 3.0 7.1
07:13 13.8 13.7 99 997.6 21.3 S 23.5 2.3 7.1
07:14 13.8 13.7 99 997.6 19.7 SE 23.5 2.3 7.2
07:15 13.9 13.8 99 997.5 22.1 SE 23.5 2.3 7.2
07:16 13.9 13.8 99 997.5 25.1 S 25.1 1.5 7.2
07:17 13.8 13.7 99 997.7 16.8 S 25.1 2.3 7.2
07:18 13.9 13.8 99 997.7 13.6 S 25.1 1.5 7.2
07:19 13.9 13.8 99 997.6 16.8 SE 25.1 2.3 7.3
07:20 13.9 13.8 99 997.7 19.0 S 25.1 2.3 7.4
07:21 13.9 13.8 99 997.7 24.4 SE 25.1 2.3 7.4
07:22 13.9 13.8 99 997.8 28.2 S 28.2 1.5 7.4
07:23 13.9 13.8 99 997.7 19.7 S 28.2 2.3 7.4
07:24 13.8 13.7 99 997.8 21.3 S 28.2 1.5 7.4
07:26 13.9 13.8 99 997.8 17.4 SE 28.2 0.8 7.4
07:27 13.8 13.7 99 997.8 13.0 S 28.2 0.8 7.5
07:28 13.8 13.7 99 998.0 19.0 S 28.2 0.8 7.5
07:29 13.8 13.7 99 997.8 15.9 S 28.2 0.8 7.5
07:30 13.8 13.7 99 997.7 18.3 SE 28.2 0.8 7.5
07:31 13.8 13.7 99 997.7 15.2 SE 28.2 0.8 7.6
07:32 13.8 13.7 99 997.6 15.2 S 21.3 1.5 7.6
07:33 13.8 13.7 99 997.8 15.9 S 21.3 0.8 7.6
07:34 13.8 13.7 99 997.8 17.4 SE 21.3 0.8 7.6
07:35 13.8 13.7 99 997.7 17.4 SE 19.0 0.8 7.6
07:36 13.8 13.7 99 997.8 17.4 SE 24.4 1.5 7.6
07:37 13.8 13.7 99 997.8 17.4 S 24.4 1.5 7.7
07:38 13.8 13.7 99 997.8 19.7 S 24.4 1.5 7.7
07:39 13.8 13.7 99 997.7 17.4 SE 24.4 1.5 7.7
07:41 13.8 13.7 99 997.7 19.7 S 24.4 1.5 7.7
07:42 13.7 13.6 99 997.5 20.6 S 24.4 0.8 7.7
07:43 13.8 13.7 99 997.7 14.5 S 24.4 0.8 7.8
07:44 13.8 13.7 99 997.6 16.8 SE 24.4 1.5 7.8
07:45 13.8 13.7 99 997.6 15.9 SE 24.4 1.5 7.8
07:46 13.8 13.7 99 997.8 17.4 S 20.6 0.8 7.8
07:47 13.8 13.7 99 997.8 17.4 S 20.6 0.8 7.8
07:48 13.8 13.7 99 997.6 15.2 S 20.6 0.8 7.8
07:49 13.8 13.7 99 997.5 17.4 S 20.6 0.0 7.8
07:50 13.8 13.7 99 997.5 17.4 SE 20.6 0.8 7.9
07:51 13.8 13.7 99 997.6 17.4 SE 20.6 0.8 7.9
07:52 13.8 13.7 99 997.6 13.0 SE 20.6 1.5 7.9
07:53 13.8 13.7 99 997.6 15.9 SE 17.4 1.5 7.9
07:54 13.8 13.7 99 997.6 17.4 S 17.4 2.3 8.0
07:56 13.8 13.7 99 997.8 22.1 S 22.1 2.3 8.1
07:57 13.8 13.7 99 997.6 17.4 S 22.1 1.5 8.1
07:58 13.8 13.7 99 997.6 9.8 SE 22.1 1.5 8.1
07:59 13.8 13.7 99 997.6 9.8 SE 22.1 0.8 8.1
08:00 13.8 13.7 99 997.6 15.2 SE 22.1 0.8 8.1
08:01 13.8 13.7 99 997.6 17.4 SE 22.1 0.0 8.1
08:02 13.8 13.7 99 997.6 17.4 SE 22.1 0.8 8.1
08:03 13.8 13.7 99 997.6 13.0 S 22.1 0.8 8.1
08:04 13.8 13.7 99 997.4 13.6 SE 22.1 0.8 8.1
08:05 13.8 13.7 99 997.7 10.7 S 22.1 1.5 8.2
08:06 13.8 13.7 99 997.5 11.4 S 22.1 1.5 8.2
08:07 13.8 13.7 99 997.6 13.0 SSE 17.4 0.8 8.2
08:08 13.8 13.7 99 997.7 16.8 S 17.4 0.8 8.2
08:09 13.8 13.7 99 997.6 11.4 SE 17.4 0.8 8.2
08:11 13.8 13.7 99 997.7 19.0 SE 19.0 0.8 8.3
08:12 13.8 13.7 99 997.6 16.8 S 19.0 0.8 8.3
08:13 13.8 13.7 99 997.6 17.4 SE 19.0 1.5 8.3
08:14 13.8 13.7 99 997.7 17.4 S 19.0 1.5 8.3
08:15 13.8 13.7 99 997.6 19.7 S 19.7 1.5 8.3
08:16 13.8 13.7 99 997.8 17.4 S 19.7 0.8 8.3
08:17 13.8 13.7 99 997.6 16.8 SE 19.7 0.8 8.3
08:18 13.8 13.7 99 997.7 13.0 S 19.7 0.0 8.3
08:19 13.8 13.7 99 997.8 15.9 S 19.7 0.8 8.4
08:20 13.8 13.7 99 997.7 13.6 SE 19.7 0.8 8.4
08:21 13.8 13.7 99 997.8 15.9 SW 19.7 0.8 8.4
08:22 13.8 13.7 99 997.8 11.4 SE 19.7 0.8 8.4
08:23 13.8 13.7 99 997.8 19.0 SE 19.7 1.5 8.4
08:24 13.8 13.7 99 997.8 16.8 S 19.7 0.8 8.4
08:25 13.8 13.7 99 997.8 15.2 SE 19.7 0.8 8.4
08:27 13.7 13.6 99 997.8 17.4 SE 20.6 0.8 8.4
08:28 13.7 13.6 99 997.8 18.3 SE 20.6 0.0 8.4
08:29 13.7 13.6 99 997.9 9.8 SE 20.6 0.8 8.5
08:30 13.7 13.6 99 997.8 10.7 S 20.6 0.8 8.5
08:31 13.7 13.6 99 997.8 15.2 SE 20.6 0.8 8.5
08:32 13.7 13.6 99 997.8 13.0 S 20.6 0.8 8.5
08:33 13.7 13.6 99 997.8 14.5 S 20.6 0.8 8.5
08:34 13.6 13.5 99 997.8 17.4 SE 20.6 0.0 8.5
08:35 13.6 13.5 99 998.0 16.8 S 20.6 0.8 8.6
08:36 13.6 13.5 99 997.9 16.8 SE 18.3 0.8 8.6
08:37 13.6 13.5 99 997.8 13.6 SSE 18.3 0.8 8.6
08:38 13.6 13.5 99 997.8 13.0 SE 18.3 0.8 8.6
08:39 13.6 13.5 99 997.7 11.4 SE 17.4 0.8 8.6
08:40 13.6 13.5 99 997.7 10.7 S 17.4 0.0 8.6
08:41 13.6 13.5 99 997.7 13.6 SE 17.4 0.8 8.6
08:42 13.5 13.4 99 997.7 11.4 SE 17.4 0.8 8.6
08:44 13.5 13.4 99 997.7 12.1 E 16.8 1.5 8.7
08:45 13.5 13.4 99 997.9 9.2 SE 16.8 1.5 8.7
08:46 13.5 13.4 99 997.7 9.8 SE 15.2 0.8 8.7
08:47 13.5 13.4 99 997.9 12.1 SE 15.2 0.8 8.7
08:48 13.5 13.4 99 997.9 11.4 SE 15.2 0.8 8.7
08:49 13.5 13.4 99 997.8 13.0 SE 15.2 0.8 8.8
08:50 13.5 13.4 99 997.8 13.0 SE 15.2 0.8 8.8
08:51 13.5 13.4 99 997.9 10.7 SE 15.2 0.8 8.8
08:52 13.5 13.4 99 997.8 9.8 S 15.2 1.5 8.8
08:53 13.5 13.4 99 997.9 13.0 ESE 15.2 1.5 8.8
08:54 13.5 13.4 99 997.7 9.2 NE 15.2 1.5 8.9
08:55 13.5 13.4 99 997.7 15.2 S 15.2 1.5 8.9
08:56 13.5 13.4 99 997.9 15.2 SE 15.2 1.5 8.9
08:57 13.5 13.4 99 997.8 10.7 SE 15.2 1.5 8.9
08:58 13.5 13.4 99 997.9 11.4 SE 15.2 1.5 8.9
08:59 13.5 13.4 99 997.7 14.5 SE 15.2 1.5 9.0
09:01 13.5 13.4 99 997.8 12.1 S 15.2 2.3 9.1
09:02 13.6 13.5 99 997.6 12.1 SE 15.2 1.5 9.1
09:03 13.6 13.5 99 997.7 19.7 SE 19.7 1.5 9.1
09:04 13.5 13.4 99 997.8 13.6 SE 19.7 1.5 9.1
09:05 13.5 13.4 99 997.7 13.6 S 19.7 1.5 9.2
09:06 13.5 13.4 99 997.7 9.8 SE 19.7 1.5 9.2
09:07 13.5 13.4 99 997.7 8.3 SE 19.7 1.5 9.2
09:08 13.5 13.4 99 997.7 13.6 SE 19.7 1.5 9.2
09:09 13.5 13.4 99 997.7 16.8 SE 19.7 1.5 9.3
09:10 13.5 13.4 99 997.7 12.1 SE 19.7 1.5 9.3
09:11 13.5 13.4 99 997.7 14.5 SE 19.7 0.8 9.3
09:12 13.5 13.4 99 997.7 15.2 SE 19.7 1.5 9.3
09:13 13.5 13.4 99 997.7 13.0 SE 19.7 1.5 9.3
09:14 13.5 13.4 99 997.5 11.4 SE 16.8 0.8 9.3
09:15 13.5 13.4 99 997.6 12.1 SE 16.8 1.5 9.4
09:16 13.4 13.3 99 997.8 11.4 S 16.8 1.5 9.4
09:17 13.4 13.3 99 997.7 9.8 SE 16.8 0.8 9.4
09:18 13.4 13.3 99 997.8 12.1 S 16.8 1.5 9.4
09:19 13.4 13.3 99 997.8 11.4 SE 16.8 1.5 9.4
09:20 13.4 13.3 99 997.6 13.0 SE 15.2 0.8 9.4
09:22 13.4 13.3 99 997.8 9.2 SE 14.5 1.5 9.5
09:23 13.4 13.3 99 997.9 12.1 SE 14.5 0.8 9.5
09:24 13.3 13.2 99 997.8 15.9 SE 15.9 0.8 9.6
09:25 13.3 13.2 99 997.8 10.7 SE 15.9 1.5 9.6
09:26 13.4 13.3 99 997.7 14.5 S 15.9 1.5 9.6
09:27 13.3 13.2 99 997.7 10.7 SE 15.9 0.8 9.6
09:28 13.3 13.2 99 997.6 9.2 S 15.9 1.5 9.6
09:29 13.3 13.2 99 997.7 13.6 ESE 15.9 1.5 9.6
09:30 13.3 13.2 99 997.8 11.4 S 15.9 1.5 9.7
09:31 13.3 13.2 99 997.6 10.7 SE 15.9 1.5 9.7
09:32 13.3 13.2 99 997.6 12.1 S 15.9 1.5 9.8
09:33 13.3 13.2 99 997.5 12.1 ENE 15.9 1.5 9.8
09:34 13.3 13.2 99 997.7 13.6 E 15.9 1.5 9.8
09:35 13.3 13.2 99 997.6 13.0 SE 15.9 1.5 9.8
09:36 13.2 13.1 99 997.6 11.4 SSE 15.9 1.5 9.8
09:38 13.2 13.1 99 997.6 12.1 SE 15.9 1.5 9.9
09:39 13.2 13.1 99 997.5 13.0 E 15.9 1.5 9.9
09:40 13.2 13.1 99 997.5 14.5 SE 15.9 0.8 10.0
09:41 13.2 13.1 99 997.5 9.8 SE 14.5 1.5 10.0
09:42 13.2 13.1 99 997.5 8.3 E 14.5 1.5 10.0
09:43 13.2 13.1 99 997.5 9.2 SE 14.5 1.5 10.0
09:44 13.2 13.1 99 997.6 8.3 SE 14.5 1.5 10.1
09:45 13.2 13.1 99 997.6 9.2 SE 14.5 2.3 10.1
09:46 13.2 13.1 99 997.6 6.0 SE 14.5 1.5 10.1
09:47 13.2 13.1 99 997.5 13.6 SE 14.5 2.3 10.1
09:48 13.2 13.1 99 997.5 13.6 SE 14.5 1.5 10.1
09:49 13.2 13.1 99 997.6 6.9 SE 14.5 2.3 10.2
09:50 13.2 13.1 99 997.5 7.6 SE 14.5 1.5 10.2
09:51 13.2 13.1 99 997.6 8.3 SE 14.5 2.3 10.3
09:52 13.2 13.1 99 997.4 12.1 SE 13.6 1.5 10.3
09:53 13.2 13.1 99 997.5 8.3 NE 13.6 2.3 10.4
09:54 13.2 13.1 99 997.5 6.0 SE 13.6 2.3 10.5
09:56 13.2 13.1 99 997.4 10.7 SE 13.6 3.8 10.6
09:57 13.2 13.1 99 997.3 9.2 SE 13.0 3.8 10.6
09:58 13.2 13.1 99 997.4 7.6 S 13.0 3.0 10.6
09:59 13.2 13.1 99 997.4 6.0 SE 13.0 3.0 10.7
10:00 13.2 13.1 99 997.3 11.4 SW 13.0 3.0 10.7
10:01 13.2 13.1 99 997.3 6.0 E 13.0 1.5 10.8
10:02 13.2 13.1 99 997.3 6.0 E 13.0 3.0 10.8
10:03 13.2 13.1 99 997.2 8.3 SE 13.0 3.0 10.8
10:04 13.2 13.1 99 997.3 9.2 ESE 13.0 3.0 10.9
10:05 13.3 13.2 99 997.3 9.8 S 13.0 3.0 11.0
10:06 13.3 13.2 99 997.3 11.4 SE 11.4 3.0 11.0
10:07 13.3 13.2 99 997.2 8.3 S 13.6 2.3 11.1
10:08 13.3 13.2 99 997.3 11.4 SE 13.6 3.0 11.1
10:09 13.3 13.2 99 997.3 8.3 SE 13.6 2.3 11.1
10:10 13.3 13.2 99 997.1 9.2 SE 13.6 2.3 11.2
10:11 13.3 13.2 99 997.2 8.3 NNE 13.6 2.3 11.2
10:13 13.3 13.2 99 997.2 7.6 E 13.6 2.3 11.3
10:14 13.3 13.2 99 997.1 9.2 SE 13.6 2.3 11.3
10:15 13.4 13.3 99 997.2 9.8 NW 13.6 2.3 11.3
10:16 13.4 13.3 99 997.0 9.2 ENE 13.6 3.0 11.5
10:17 13.4 13.3 99 996.8 6.9 N 11.4 3.0 11.5
10:18 13.4 13.3 99 996.9 6.0 SE 9.8 2.3 11.5
10:19 13.4 13.3 99 996.8 5.4 SE 9.8 2.3 11.5
10:20 13.4 13.3 99 996.9 6.9 W 9.8 2.3 11.5
10:21 13.5 13.4 99 996.8 9.2 WNW 9.8 2.3 11.6
10:22 13.5 13.4 99 996.9 12.1 NE 12.1 1.5 11.6
10:23 13.5 13.4 99 996.8 6.9 S 12.1 2.3 11.7
10:24 13.5 13.4 99 996.9 10.7 S 12.1 3.8 11.8
10:25 13.5 13.4 99 996.8 11.4 SE 12.1 3.8 11.8
10:26 13.5 13.4 99 996.7 10.7 SE 12.1 3.8 11.9
10:27 13.5 13.4 99 996.8 9.2 S 12.1 4.5 12.0
10:28 13.5 13.4 99 996.7 4.5 S 12.1 4.5 12.1
10:30 13.5 13.4 99 996.4 9.8 NE 12.1 4.5 12.2
10:31 13.6 13.5 99 996.3 6.0 W 12.1 3.8 12.3
10:32 13.6 13.5 99 996.5 6.9 SE 11.4 4.5 12.4
10:33 13.6 13.5 99 996.4 5.4 E 11.4 4.5 12.5
10:34 13.6 13.5 99 996.4 7.6 NE 11.4 4.5 12.5
10:35 13.6 13.5 99 996.3 9.2 SE 10.7 3.0 12.5
10:36 13.6 13.5 99 996.3 9.2 S 9.8 4.5 12.6
10:37 13.6 13.5 99 996.3 8.3 N 9.8 3.8 12.7
10:38 13.6 13.5 99 996.2 3.8 NW 9.8 3.8 12.7
10:39 13.6 13.5 99 996.2 3.8 SW 9.8 3.0 12.8
10:40 13.6 13.5 99 996.2 5.4 E 9.8 4.5 12.9
10:41 13.6 13.5 99 996.4 4.5 WSW 9.2 3.8 12.9
10:42 13.6 13.5 99 996.4 12.1 SE 12.1 3.0 12.9
10:43 13.6 13.5 99 996.3 9.8 SE 12.1 3.0 13.0
10:44 13.6 13.5 99 996.2 9.2 N 12.1 6.0 13.2
10:45 13.6 13.5 99 996.3 7.6 SE 12.1 5.3 13.3
10:46 13.5 13.4 99 996.3 7.6 ESE 12.1 4.5 13.4
10:48 13.5 13.4 99 996.2 9.2 SE 12.1 4.5 13.4
10:49 13.5 13.4 99 996.3 6.9 SE 12.1 2.3 13.5
10:50 13.5 13.4 99 996.3 8.3 S 12.1 2.3 13.5
10:51 13.5 13.4 99 996.1 6.0 E 12.1 3.0 13.5
10:52 13.5 13.4 99 996.2 4.5 E 11.4 3.0 13.6
10:53 13.5 13.4 99 996.2 6.0 SE 11.4 3.0 13.6
10:54 13.5 13.4 99 996.2 6.0 SE 11.4 2.3 13.6
10:55 13.5 13.4 99 996.1 7.6 SE 9.8 1.5 13.6
10:56 13.4 13.3 99 996.4 11.4 E 11.4 1.5 13.7
10:57 13.5 13.4 99 996.3 10.7 SSW 11.4 0.8 13.7
10:58 13.4 13.3 99 996.1 11.4 E 11.4 0.8 13.7
10:59 13.5 13.4 99 996.2 15.2 ENE 15.2 0.8 13.7
11:00 13.5 13.4 99 996.1 11.4 E 15.2 0.8 13.7
11:01 13.5 13.4 99 996.2 11.4 E 15.2 0.0 13.7
11:02 13.5 13.4 99 996.3 9.2 S 15.2 0.8 13.7
11:03 13.5 13.4 99 996.0 14.5 E 15.2 0.8 13.7
11:05 13.5 13.4 99 996.2 13.6 S 15.2 0.8 13.7
11:06 13.5 13.4 99 996.3 13.0 SE 15.2 0.8 13.7
11:07 13.6 13.5 99 996.2 18.3 SE 18.3 0.8 13.8
11:08 13.6 13.5 99 996.1 14.5 E 18.3 0.8 13.8
11:09 13.6 13.5 99 996.1 10.7 S 18.3 1.5 13.9
11:11 13.6 13.5 99 996.1 13.6 S 18.3 1.5 13.9
11:12 13.7 13.6 99 996.0 11.4 S 18.3 1.5 13.9
11:13 13.7 13.6 99 996.1 9.8 SE 18.3 1.5 13.9
11:14 13.7 13.6 99 996.1 9.2 SE 18.3 0.8 14.0
11:15 13.7 13.6 99 996.1 13.0 S 18.3 1.5 14.0
11:16 13.7 13.6 99 996.1 10.7 S 18.3 1.5 14.0
11:17 13.7 13.6 99 996.1 10.7 S 18.3 0.8 14.0
11:18 13.7 13.6 99 996.0 11.4 SE 14.5 0.8 14.0
11:19 13.7 13.6 99 996.1 9.2 SE 13.6 0.8 14.0
11:20 13.8 13.7 99 996.1 8.3 E 13.6 0.0 14.0
11:21 13.8 13.7 99 996.1 9.8 SE 13.6 0.0 14.0
11:22 13.8 13.7 99 996.1 15.2 SE 15.2 0.0 14.0
11:23 13.8 13.7 99 996.1 15.2 SE 15.2 0.0 14.0
11:24 13.8 13.7 99 995.9 15.9 SE 15.9 0.0 14.0
11:25 13.8 13.7 99 996.2 9.8 S 15.9 0.0 14.0
11:26 13.8 13.7 99 996.2 13.0 SE 15.9 0.0 14.0
11:27 13.8 13.7 99 996.1 18.3 S 18.3 0.0 14.0
11:29 13.8 13.7 99 996.0 12.1 SE 18.3 0.0 14.0
11:30 13.8 13.7 99 996.1 19.7 S 19.7 0.0 14.0
11:31 13.9 13.8 99 996.0 15.2 S 19.7 0.0 14.0
11:32 13.8 13.7 99 996.1 21.3 S 21.3 0.0 14.0
11:33 13.8 13.7 99 996.1 13.0 SE 21.3 0.0 14.0
11:34 13.8 13.7 99 996.1 13.0 SE 21.3 0.0 14.0
11:35 13.9 13.8 99 996.1 14.5 SE 21.3 0.0 14.0
11:36 13.9 13.8 99 996.0 16.8 SE 21.3 0.0 14.0
11:37 13.8 13.7 99 996.2 19.0 S 21.3 0.0 14.0
11:38 13.8 13.7 99 996.2 15.9 SSW 21.3 0.0 14.0
11:39 13.9 13.8 99 996.3 10.7 SE 21.3 0.0 14.0
11:40 13.9 13.8 99 996.2 9.8 SE 21.3 0.0 14.0
11:41 13.9 13.8 99 996.3 13.6 SE 21.3 0.0 14.0
11:42 13.9 13.8 99 996.2 13.6 E 21.3 0.0 14.0
11:43 14.0 13.9 99 996.4 11.4 S 19.0 0.0 14.0
11:44 14.0 13.9 99 996.4 15.2 SSE 19.0 0.0 14.0
11:45 14.0 13.9 99 996.5 12.1 SE 19.0 0.0 14.0
11:47 14.0 13.9 99 996.5 9.2 SE 15.9 0.0 14.0
11:48 14.0 13.9 99 996.7 13.6 S 15.2 0.0 14.0
11:49 14.1 14.0 99 996.6 10.7 S 15.2 0.0 14.0
11:50 14.1 14.0 99 996.8 13.6 S 15.2 0.0 14.0
11:51 14.1 14.0 99 996.9 11.4 SW 15.2 0.0 14.0
11:52 14.1 14.0 99 996.7 10.7 S 15.2 0.0 14.0
11:53 14.2 14.1 99 996.8 13.0 S 15.2 0.0 14.0
11:54 14.2 14.1 99 996.7 9.8 S 15.2 0.0 14.0
11:55 14.2 14.1 99 996.8 12.1 SE 14.5 0.0 14.0
11:56 14.2 14.1 99 996.9 12.1 S 14.5 0.0 14.0
11:57 14.3 14.2 99 996.9 12.1 S 14.5 0.0 14.0
11:58 14.3 14.2 99 996.8 12.1 S 14.5 0.0 14.0
11:59 14.5 14.4 99 997.0 15.2 S 15.2 0.0 14.0
12:00 14.6 14.5 99 997.0 12.1 S 15.2 0.0 14.0
12:01 14.7 14.6 99 997.0 10.7 S 15.2 0.0 14.0
12:02 14.8 14.7 99 997.0 9.8 S 15.2 0.0 14.0
12:03 14.8 14.7 99 996.9 8.3 SW 15.2 0.0 14.0
12:05 15.0 14.9 99 996.9 11.4 S 15.2 0.0 14.0
12:06 15.1 15.0 99 997.1 9.2 W 15.2 0.0 14.0
12:07 15.0 14.9 99 997.0 11.4 SW 15.2 0.0 14.0
12:08 15.1 15.0 99 997.2 10.7 SW 15.2 0.0 14.0
12:09 14.9 14.8 99 997.4 14.5 W 14.5 0.0 14.0
12:10 14.9 14.8 99 997.4 14.5 W 14.5 0.0 14.0
12:11 14.7 14.6 99 997.3 8.3 WNW 14.5 0.0 14.0
12:12 14.6 14.5 99 997.3 9.2 WSW 14.5 0.0 14.0
12:13 14.5 14.4 99 997.4 9.8 S 14.5 0.0 14.0
12:14 14.5 14.4 99 997.2 6.9 NW 14.5 0.0 14.0
12:15 14.3 14.2 99 997.5 6.9 SW 14.5 0.0 14.0
12:16 14.3 14.2 99 997.3 7.6 NW 14.5 0.0 14.0
12:17 14.2 14.1 99 997.3 10.7 NW 14.5 0.0 14.0
12:18 14.2 14.1 99 997.4 6.9 SW 14.5 0.0 14.0
12:19 14.1 14.0 99 997.4 6.9 SW 14.5 0.0 14.0
12:20 14.1 14.0 99 997.5 9.2 SW 10.7 0.0 14.0
12:21 14.1 14.0 99 997.5 6.9 W 10.7 0.0 14.0
12:22 14.0 13.9 99 997.7 13.0 NW 13.0 0.0 14.0
12:24 14.0 13.9 99 997.8 10.7 NW 13.0 0.0 14.0
12:25 13.9 13.8 99 997.8 9.2 SW 13.0 0.0 14.0
12:26 13.9 13.8 99 997.8 10.7 NW 13.0 0.0 14.0
12:27 13.9 13.8 99 997.8 8.3 SW 13.0 0.0 14.0
12:28 13.8 13.7 99 997.8 10.7 SW 13.0 0.0 14.0
12:29 13.8 13.7 99 997.7 12.1 NW 13.0 0.0 14.0
12:30 13.8 13.7 99 997.7 7.6 SW 13.0 0.0 14.0
12:31 13.7 13.6 99 997.9 11.4 WNW 13.0 0.0 14.0
12:32 13.7 13.6 99 997.8 9.2 WNW 13.0 0.0 14.0
12:33 13.6 13.5 99 997.7 9.8 N 12.1 0.0 14.0
12:34 13.6 13.5 99 997.8 8.3 W 12.1 0.0 14.0
12:35 13.6 13.5 99 997.7 6.9 S 12.1 0.0 14.0
12:36 13.6 13.5 99 997.8 8.3 WNW 12.1 0.0 14.0
12:37 13.6 13.5 99 998.0 9.8 NW 12.1 0.0 14.0
12:38 13.6 13.5 99 997.9 9.2 SW 12.1 0.0 14.0
12:39 13.5 13.4 99 997.9 8.3 SW 11.4 0.0 14.0
12:41 13.5 13.4 99 998.2 9.8 SW 10.7 0.0 14.0
12:42 13.5 13.4 99 998.2 10.7 NW 10.7 0.0 14.0
12:43 13.5 13.4 99 998.3 9.2 NW 10.7 0.0 14.0
12:44 13.5 13.4 99 998.3 9.2 NW 10.7 0.0 14.0
12:45 13.5 13.4 99 998.3 5.4 WSW 10.7 0.0 14.0
12:46 13.5 13.4 99 998.3 5.4 WSW 10.7 0.0 14.0
12:47 13.4 13.3 99 998.5 10.7 W 12.1 0.0 14.0
12:48 13.4 13.3 99 998.6 10.7 W 12.1 0.0 14.0
12:49 13.4 13.3 99 998.4 8.3 W 12.1 0.0 14.0
12:50 13.4 13.3 99 998.5 9.8 W 12.1 0.0 14.0
12:51 13.4 13.3 99 998.5 8.3 W 12.1 0.0 14.0
12:52 13.4 13.3 99 998.7 8.3 W 12.1 0.0 14.0
12:53 13.4 13.3 99 998.6 7.6 NW 12.1 0.0 14.0
12:54 13.4 13.3 99 998.5 9.2 SW 12.1 0.0 14.0
12:55 13.4 13.3 99 998.5 9.2 WSW 12.1 0.0 14.0
12:56 13.3 13.2 99 998.7 5.4 NW 12.1 0.0 14.0
12:57 13.3 13.2 99 998.7 9.2 NNW 10.7 0.0 14.0
12:58 13.3 13.2 99 998.8 6.9 SW 9.8 0.0 14.0
12:59 13.3 13.2 99 999.0 6.9 W 9.8 0.0 14.0
13:01 13.3 13.2 99 998.9 7.6 NW 9.2 0.0 14.0
13:02 13.3 13.2 99 999.0 9.2 NW 9.2 0.0 14.0
13:03 13.3 13.2 99 999.0 8.3 NW 9.2 0.0 14.0
13:04 13.4 13.3 99 999.1 6.0 SW 9.2 0.0 14.0
13:05 13.4 13.3 99 999.0 6.0 SW 9.2 0.0 14.0
13:06 13.4 13.3 99 999.0 8.3 SW 9.2 0.0 14.0
13:07 13.4 13.3 99 999.1 6.9 SW 9.2 0.0 14.0
13:08 13.4 13.3 99 999.2 6.9 W 9.2 0.0 14.0
13:09 13.4 13.3 99 999.0 9.8 S 9.8 0.0 14.0
13:10 13.4 13.3 99 999.3 6.9 SW 9.8 0.0 14.0
13:11 13.4 13.3 99 999.0 6.9 W 9.8 0.0 14.0
13:12 13.4 13.3 99 999.0 9.8 SW 9.8 0.0 14.0
13:13 13.4 13.3 99 999.3 8.3 SW 9.8 0.0 14.0
13:14 13.4 13.3 99 999.2 6.9 SW 9.8 0.0 14.0
13:15 13.4 13.3 99 999.1 7.6 W 9.8 0.0 14.0
13:16 13.3 13.2 99 999.3 6.0 W 9.8 0.0 14.0
13:17 13.3 13.2 99 999.2 6.9 NW 9.8 0.0 14.0
13:18 13.3 13.2 99 999.3 9.2 W 9.8 0.0 14.0
13:19 13.3 13.2 99 999.2 6.0 NW 9.8 0.0 14.0
13:20 13.4 13.3 99 999.4 5.4 WSW 9.8 0.0 14.0
13:21 13.4 13.3 99 999.2 5.4 NNW 9.8 0.0 14.0
13:22 13.6 13.5 99 999.3 5.4 SW 9.2 0.0 14.0
13:23 13.7 13.6 99 999.3 6.9 W 9.2 0.0 14.0
13:24 13.9 13.8 99 999.3 5.4 W 9.2 0.0 14.0
13:26 14.1 14.0 99 999.4 5.4 SW 9.2 0.0 14.0
13:27 14.1 14.0 99 999.4 6.0 SW 9.2 0.0 14.0
13:28 14.2 14.1 99 999.5 9.2 W 9.8 0.0 14.0
13:29 14.2 14.1 99 999.5 6.0 WSW 9.8 0.0 14.0
13:30 14.2 14.1 99 999.5 6.0 WSW 9.8 0.0 14.0
13:31 14.2 14.1 99 999.4 9.2 SW 9.8 0.0 14.0
13:32 14.1 14.0 99 999.5 6.0 W 9.8 0.0 14.0
13:33 14.1 14.0 99 999.5 5.4 W 9.8 0.0 14.0
13:34 14.1 14.0 99 999.5 6.0 SW 9.8 0.0 14.0
13:35 14.1 14.0 99 999.5 9.2 SW 9.8 0.0 14.0
13:36 14.2 14.1 99 999.5 9.2 SW 9.8 0.0 14.0
13:37 14.2 14.1 99 999.5 6.9 W 9.8 0.0 14.0
13:38 14.3 14.2 99 999.6 6.0 SW 9.8 0.0 14.0
13:39 14.3 14.2 99 999.7 6.9 NW 9.2 0.0 14.0
13:40 14.4 14.3 99 999.7 6.0 W 9.2 0.0 14.0
13:41 14.4 14.3 99 999.8 9.2 W 9.2 0.0 14.0
13:42 14.4 14.3 99 999.8 8.3 NW 9.2 0.0 14.0
13:43 14.4 14.3 99 999.9 6.9 SW 9.2 0.0 14.0
13:45 14.3 14.2 99 999.9 8.3 SW 9.2 0.0 14.0
13:46 14.2 14.1 99 1000.0 9.2 NW 9.2 0.0 14.0
13:47 14.1 14.0 99 1000.0 7.6 SW 9.2 0.0 14.0
13:48 14.1 14.0 99 1000.0 5.4 SW 9.2 0.0 14.0
13:49 14.1 14.0 99 1000.0 5.4 SW 9.2 0.0 14.0
13:50 14.1 14.0 99 999.9 5.4 NW 9.2 0.0 14.0
13:51 14.0 13.9 99 1000.0 7.6 SW 9.2 0.0 14.0
13:52 14.0 13.9 99 1000.1 8.3 SW 9.2 0.0 14.0
13:53 14.0 13.9 99 1000.1 8.3 S 9.2 0.0 14.0
13:54 13.9 13.8 99 1000.2 6.9 SW 9.2 0.0 14.0
13:55 13.9 13.8 99 1000.2 4.5 N 9.2 0.0 14.0
13:56 13.9 13.8 99 1000.1 4.5 SW 9.2 0.0 14.0
13:57 13.9 13.8 99 1000.2 5.4 SW 9.2 0.0 14.0
13:58 13.8 13.7 99 1000.3 6.0 SW 9.2 0.0 14.0
13:59 13.8 13.7 99 1000.3 4.5 SE 9.2 0.0 14.0
14:00 13.8 13.7 99 1000.2 6.9 S 9.2 0.0 14.0
14:01 13.8 13.7 99 1000.2 6.9 S 9.2 0.0 14.0
14:02 13.7 13.6 99 1000.2 6.9 SW 9.2 0.0 14.0
14:03 13.7 13.6 99 1000.0 6.9 SW 9.2 0.0 14.0
14:04 13.7 13.6 99 1000.2 6.9 S 6.9 0.0 14.0
14:05 13.7 13.6 99 1000.1 5.4 S 6.9 0.0 14.0
14:06 13.7 13.6 99 1000.1 3.8 SE 6.9 0.0 14.0
14:07 13.6 13.5 99 1000.2 3.8 W 6.9 0.0 14.0
14:08 13.6 13.5 99 1000.1 4.5 SW 6.9 0.0 14.0
14:09 13.6 13.5 99 1000.2 6.9 WSW 6.9 0.0 14.0
14:10 13.6 13.5 99 1000.1 5.4 SW 6.9 0.0 14.0
14:11 13.6 13.5 99 1000.1 5.4 S 6.9 0.0 14.0
14:12 13.6 13.5 99 1000.3 6.0 SE 6.9 0.0 14.0
14:13 13.6 13.5 99 1000.3 7.6 SW 7.6 0.0 14.0
14:14 13.6 13.5 99 1000.3 7.6 S 7.6 0.0 14.0
14:15 13.6 13.5 99 1000.3 6.0 SW 7.6 0.0 14.0
14:16 13.6 13.5 99 1000.3 6.9 SW 8.3 0.0 14.0
14:18 13.6 13.5 99 1000.3 7.6 S 8.3 0.0 14.0
14:19 13.6 13.5 99 1000.4 9.8 S 9.8 0.0 14.0
14:20 13.6 13.5 99 1000.3 7.6 SW 9.8 0.0 14.0
14:21 13.6 13.5 99 1000.4 8.3 SW 9.8 0.0 14.0
14:22 13.6 13.5 99 1000.4 8.3 SW 9.8 0.0 14.0
14:23 13.6 13.5 99 1000.4 7.6 SW 9.8 0.0 14.0
14:24 13.6 13.5 99 1000.6 7.6 SW 9.8 0.0 14.0
14:25 13.6 13.5 99 1000.4 7.6 SW 9.8 0.0 14.0
14:26 13.6 13.5 99 1000.5 5.4 S 9.8 0.0 14.0
14:27 13.6 13.5 99 1000.5 7.6 SSE 9.8 0.0 14.0
14:28 13.6 13.5 99 1000.6 10.7 SW 10.7 0.0 14.0
14:29 13.6 13.5 99 1000.6 7.6 SW 10.7 0.0 14.0
14:30 13.6 13.5 99 1000.4 10.7 SW 10.7 0.0 14.0
14:31 13.6 13.5 99 1000.6 9.2 SW 10.7 0.0 14.0
14:32 13.6 13.5 99 1000.6 8.3 WSW 10.7 0.0 14.0
14:33 13.6 13.5 99 1000.5 9.8 SW 10.7 0.0 14.0
14:34 13.6 13.5 99 1000.5 7.6 SSW 10.7 0.0 14.0
14:35 13.7 13.6 99 1000.6 8.3 S 10.7 0.0 14.0
14:37 13.8 13.7 99 1000.5 14.5 S 14.5 0.0 14.0
14:38 13.8 13.7 99 1000.4 10.7 S 14.5 0.0 14.0
14:39 13.8 13.7 99 1000.6 10.7 SW 14.5 0.0 14.0
14:40 13.8 13.7 99 1000.6 12.1 SW 14.5 0.0 14.0
14:41 13.8 13.7 99 1000.6 8.3 W 14.5 0.0 14.0
14:42 13.8 13.7 99 1000.7 11.4 SW 14.5 0.0 14.0
14:43 13.8 13.7 99 1000.7 11.4 SW 14.5 0.0 14.0
14:44 13.8 13.7 99 1000.7 12.1 SW 14.5 0.0 14.0
14:45 13.8 13.7 99 1000.8 13.6 S 14.5 0.0 14.0
14:46 13.8 13.7 99 1000.7 6.9 SW 14.5 0.0 14.0
14:47 13.8 13.7 99 1000.8 9.8 S 14.5 0.0 14.0
14:48 13.8 13.7 99 1000.7 9.8 S 13.6 0.0 14.0
14:49 13.9 13.8 99 1000.7 9.2 S 13.6 0.0 14.0
14:50 14.0 13.9 99 1000.8 11.4 S 13.6 0.0 14.0
14:51 14.1 14.0 99 1000.8 13.6 S 13.6 0.0 14.0
14:52 14.2 14.1 99 1000.8 10.7 S 13.6 0.0 14.0
14:53 14.2 14.1 99 1001.1 9.2 SW 13.6 0.0 14.0
14:55 14.2 14.1 99 1001.0 12.1 S 13.6 0.0 14.0
14:56 14.3 14.2 99 1001.0 9.8 S 13.6 0.0 14.0
14:57 14.3 14.2 99 1001.2 12.1 W 13.6 0.0 14.0
14:58 14.3 14.2 99 1001.2 9.8 SW 13.6 0.0 14.0
14:59 14.3 14.2 99 1001.3 10.7 S 13.6 0.0 14.0
15:00 14.3 14.2 99 1001.2 10.7 S 13.6 0.0 14.0
15:01 14.3 14.2 99 1001.2 10.7 S 13.6 0.0 14.0
15:02 14.4 14.3 99 1001.2 9.8 S 12.1 0.0 14.0
15:03 14.4 14.3 99 1001.3 10.7 S 12.1 0.0 14.0
15:04 14.4 14.3 99 1001.2 11.4 SW 12.1 0.0 14.0
15:05 14.4 14.3 99 1001.2 11.4 S 12.1 0.0 14.0
15:06 14.4 14.3 99 1001.3 9.2 S 12.1 0.0 14.0
15:07 14.4 14.3 99 1001.3 9.2 SE 12.1 0.0 14.0
15:08 14.3 14.2 99 1001.2 8.3 S 12.1 0.0 14.0
15:09 14.3 14.2 99 1001.2 15.2 S 15.2 0.0 14.0
15:10 14.2 14.1 99 1001.3 12.1 SW 15.2 0.0 14.0
15:11 14.2 14.1 99 1001.3 9.8 S 15.2 0.0 14.0
15:12 14.1 14.0 99 1001.3 10.7 SE 15.2 0.0 14.0
15:13 14.1 14.0 99 1001.3 11.4 S 15.2 0.0 14.0
15:14 14.0 13.9 99 1001.3 11.4 S 15.2 0.0 14.0
15:15 14.0 13.9 99 1001.5 11.4 S 15.2 0.0 14.0
15:16 13.9 13.8 99 1001.5 15.2 S 15.2 0.0 14.0
15:17 13.9 13.8 99 1001.3 10.7 SW 15.2 0.0 14.0
15:18 13.9 13.8 99 1001.3 14.5 S 15.2 0.0 14.0
15:19 13.8 13.7 99 1001.5 13.6 S 15.2 0.0 14.0
15:20 13.8 13.7 99 1001.3 12.1 SW 15.2 0.0 14.0
15:22 13.7 13.6 99 1001.5 10.7 SE 15.2 0.0 14.0
15:23 13.7 13.6 99 1001.4 9.2 SW 15.2 0.0 14.0
15:24 13.7 13.6 99 1001.3 10.7 SW 15.2 0.0 14.0
15:25 13.7 13.6 99 1001.3 10.7 SW 15.2 0.0 14.0
15:26 13.7 13.6 99 1001.4 11.4 SW 15.2 0.0 14.0
15:27 13.7 13.6 99 1001.4 13.0 SW 14.5 0.0 14.0
15:28 13.6 13.5 99 1001.5 12.1 NNE 14.5 0.0 14.0
15:29 13.6 13.5 99 1001.5 9.8 NNE 13.6 0.0 14.0
15:30 13.6 13.5 99 1001.6 12.1 SSW 13.6 0.0 14.0
15:31 13.6 13.5 99 1001.6 11.4 SW 13.0 0.0 14.0
15:32 13.6 13.5 99 1001.6 10.7 SW 13.0 0.0 14.0
15:33 13.6 13.5 99 1001.7 13.6 S 13.6 0.0 14.0
15:34 13.6 13.5 99 1001.6 9.2 S 13.6 0.0 14.0
15:35 13.6 13.5 99 1001.6 9.8 S 13.6 0.0 14.0
15:36 13.6 13.5 99 1001.5 12.1 SW 13.6 0.0 14.0
15:37 13.6 13.5 99 1001.4 9.2 S 13.6 0.0 14.0
15:38 13.7 13.6 99 1001.4 9.8 S 13.6 0.0 14.0
15:39 13.7 13.6 99 1001.6 9.8 S 13.6 0.0 14.0
15:41 13.7 13.6 99 1001.5 8.3 SE 13.6 0.0 14.0
15:42 13.7 13.6 99 1001.6 8.3 SW 13.6 0.0 14.0
15:43 13.7 13.6 99 1001.5 9.2 SE 12.1 0.0 14.0
15:44 13.8 13.7 99 1001.5 8.3 S 12.1 0.0 14.0
15:45 13.8 13.7 99 1001.6 9.8 S 12.1 0.0 14.0
15:46 13.8 13.7 99 1001.6 9.8 S 12.1 0.0 14.0
15:47 13.9 13.8 99 1001.7 7.6 S 10.7 0.0 14.0
15:48 13.9 13.8 99 1001.6 9.2 SSE 10.7 0.0 14.0
15:49 13.9 13.8 99 1001.6 7.6 S 10.7 0.0 14.0
15:50 13.9 13.8 99 1001.6 9.8 SW 10.7 0.0 14.0
15:51 13.9 13.8 99 1001.4 7.6 S 10.7 0.0 14.0
15:52 13.9 13.8 99 1001.5 7.6 S 10.7 0.0 14.0
15:53 14.0 13.9 99 1001.5 9.2 SE 10.7 0.0 14.0
15:54 14.0 13.9 99 1001.4 9.2 NW 10.7 0.0 14.0
15:55 14.0 13.9 99 1001.5 10.7 SW 10.7 0.0 14.0
15:56 14.1 14.0 99 1001.4 6.9 S 10.7 0.0 14.0
15:57 14.1 14.0 99 1001.5 9.2 SE 10.7 0.0 14.0
15:58 14.2 14.1 99 1001.4 9.2 S 10.7 0.0 14.0
16:00 14.2 14.1 99 1001.5 8.3 S 10.7 0.0 14.0
16:01 14.1 14.0 99 1001.5 7.6 SE 10.7 0.0 14.0
16:02 14.1 14.0 99 1001.6 8.3 S 10.7 0.0 14.0
16:03 14.1 14.0 99 1001.5 5.4 S 10.7 0.0 14.0
16:04 14.1 14.0 99 1001.6 7.6 S 10.7 0.0 14.0
16:05 14.1 14.0 99 1001.6 6.9 S 10.7 0.0 14.0
16:06 14.1 14.0 99 1001.8 7.6 S 9.8 0.0 14.0
16:07 14.1 14.0 99 1001.8 6.9 S 9.8 0.0 14.0
16:08 14.1 14.0 99 1001.9 6.0 SW 9.8 0.0 14.0
16:09 14.1 14.0 99 1001.9 7.6 S 9.8 0.0 14.0
16:10 14.1 14.0 99 1001.6 9.2 S 9.2 0.0 14.0
16:11 14.0 13.9 99 1001.8 9.8 S 9.8 0.0 14.0
16:12 14.0 13.9 99 1001.9 7.6 SW 9.8 0.0 14.0
16:13 14.0 13.9 99 1001.9 9.2 SW 9.8 0.0 14.0
16:14 13.9 13.8 99 1001.9 7.6 SE 9.8 0.0 14.0
16:15 13.9 13.8 99 1001.9 6.0 SW 9.8 0.0 14.0
16:16 13.9 13.8 99 1001.9 8.3 SSE 10.7 0.0 14.0
16:17 13.8 13.7 99 1002.0 8.3 S 10.7 0.0 14.0
16:19 13.8 13.7 99 1002.0 7.6 S 10.7 0.0 14.0
16:20 13.8 13.7 99 1002.1 10.7 SE 10.7 0.0 14.0
16:21 13.7 13.6 99 1002.0 10.7 S 10.7 0.0 14.0
16:22 13.7 13.6 99 1002.0 9.8 S 10.7 0.0 14.0
16:23 13.8 13.7 99 1002.0 9.2 S 10.7 0.0 14.0
16:24 13.7 13.6 99 1002.0 7.6 S 10.7 0.0 14.0
16:25 13.7 13.6 99 1001.8 8.3 SE 10.7 0.0 14.0
16:26 13.7 13.6 99 1001.8 6.9 S 10.7 0.0 14.0
16:27 13.7 13.6 99 1001.7 8.3 SW 10.7 0.0 14.0
16:28 13.7 13.6 99 1001.8 9.2 S 10.7 0.0 14.0
16:29 13.7 13.6 99 1001.8 6.0 S 10.7 0.0 14.0
16:30 13.7 13.6 99 1001.9 7.6 SE 10.7 0.0 14.0
16:31 13.7 13.6 99 1001.9 9.2 SE 10.7 0.0 14.0
16:32 13.7 13.6 99 1001.9 7.6 SW 9.2 0.0 14.0
16:33 13.7 13.6 99 1001.9 7.6 S 9.2 0.0 14.0
16:34 13.7 13.6 99 1002.0 7.6 NE 9.2 0.0 14.0
16:35 13.7 13.6 99 1002.1 8.3 WSW 9.2 0.0 14.0
16:36 13.7 13.6 99 1002.1 7.6 SW 9.2 0.0 14.0
16:37 13.7 13.6 99 1002.2 9.8 S 9.8 0.0 14.0
16:39 13.7 13.6 99 1001.9 10.7 S 10.7 0.0 14.0
16:40 13.7 13.6 99 1002.0 9.2 SE 10.7 0.0 14.0
16:41 13.7 13.6 99 1002.0 9.2 SE 10.7 0.0 14.0
16:42 13.7 13.6 99 1001.9 9.8 S 10.7 0.0 14.0
16:43 13.7 13.6 99 1002.2 7.6 S 10.7 0.0 14.0
16:44 13.8 13.7 99 1001.9 6.0 SW 10.7 0.0 14.0
16:45 13.8 13.7 99 1001.9 5.4 SE 10.7 0.0 14.0
16:46 13.8 13.7 99 1002.1 5.4 S 10.7 0.0 14.0
16:47 13.8 13.7 99 1002.0 6.9 S 10.7 0.0 14.0
16:48 13.8 13.7 99 1002.1 6.9 SE 10.7 0.0 14.0
16:49 13.8 13.7 99 1002.1 6.0 S 10.7 0.0 14.0
16:50 13.8 13.7 99 1002.2 9.2 SE 10.7 0.0 14.0
16:51 13.8 13.7 99 1002.2 9.2 SE 9.8 0.0 14.0
16:52 13.8 13.7 99 1002.4 7.6 SW 9.8 0.0 14.0
16:53 13.8 13.7 99 1002.4 8.3 S 9.2 0.0 14.0
16:54 13.8 13.7 99 1002.3 6.9 SE 9.2 0.0 14.0
16:55 13.8 13.7 99 1002.3 7.6 S 9.2 0.0 14.0
16:56 13.8 13.7 99 1002.2 9.2 S 9.2 0.0 14.0
16:57 13.8 13.7 99 1002.2 6.9 S 9.2 0.0 14.0
16:59 13.7 13.6 99 1002.3 7.6 E 9.2 0.0 14.0
17:00 13.7 13.6 99 1002.3 7.6 SE 9.2 0.0 14.0
17:01 13.7 13.6 99 1002.3 7.6 SE 9.2 0.0 14.0
17:02 13.8 13.7 99 1002.0 7.6 S 9.2 0.0 14.0
17:03 13.8 13.7 99 1002.0 7.6 SE 9.2 0.0 14.0
17:04 13.8 13.7 99 1001.9 9.2 SE 9.2 0.0 14.0
17:05 13.8 13.7 99 1001.9 7.6 S 9.2 0.0 14.0
17:06 13.8 13.7 99 1001.7 8.3 E 9.2 0.0 14.0
17:07 13.8 13.7 99 1001.8 6.0 S 9.2 0.0 14.0
17:08 13.8 13.7 99 1001.6 8.3 E 9.2 0.0 14.0
17:09 13.8 13.7 99 1001.8 7.6 SE 9.2 0.0 14.0
17:10 13.8 13.7 99 1001.5 6.0 SE 9.2 0.0 14.0
17:11 13.8 13.7 99 1001.6 5.4 SE 9.2 0.0 14.0
17:12 13.9 13.8 99 1001.6 6.0 SE 9.2 0.0 14.0
17:13 13.9 13.8 99 1001.4 6.9 S 9.2 0.0 14.0
17:14 13.9 13.8 99 1001.7 6.9 SE 9.2 0.0 14.0
17:15 14.0 13.9 99 1001.9 7.6 SE 8.3 0.0 14.0
17:16 14.0 13.9 99 1001.8 6.0 S 8.3 0.0 14.0
17:17 14.0 13.9 99 1001.8 7.6 S 8.3 0.0 14.0
17:18 14.0 13.9 99 1001.9 6.0 S 8.3 0.0 14.0
17:19 14.0 13.9 99 1001.9 6.0 S 7.6 0.0 14.0
17:20 14.0 13.9 99 1002.0 6.9 SE 8.3 0.0 14.0
17:21 14.0 13.9 99 1002.0 5.4 S 8.3 0.0 14.0
17:22 14.0 13.9 99 1002.1 5.4 S 8.3 0.0 14.0
17:24 14.0 13.9 99 1002.3 6.0 S 8.3 0.0 14.0
17:25 14.0 13.9 99 1002.2 6.9 S 8.3 0.0 14.0
17:26 14.0 13.9 99 1002.3 6.9 S 9.8 0.0 14.0
17:27 14.0 13.9 99 1002.3 8.3 SW 9.8 0.0 14.0
17:28 14.0 13.9 99 1002.3 8.3 S 9.8 0.0 14.0
17:29 14.0 13.9 99 1002.3 6.9 S 9.8 0.0 14.0
17:30 14.0 13.9 99 1002.4 9.2 S 9.8 0.0 14.0
17:31 14.1 14.0 99 1002.5 8.3 S 9.8 0.0 14.0
17:32 14.0 13.9 99 1002.5 8.3 SSW 9.8 0.0 14.0
17:33 14.0 13.9 99 1002.5 7.6 SE 9.8 0.0 14.0
17:34 14.0 13.9 99 1002.6 8.3 S 9.8 0.0 14.0
17:35 14.0 13.9 99 1002.6 8.3 S 9.8 0.0 14.0
17:36 13.9 13.8 99 1002.4 6.9 S 9.8 0.0 14.0
17:37 13.8 13.7 99 1002.6 6.0 S 9.8 0.0 14.0
17:38 13.8 13.7 99 1002.6 6.9 S 9.8 0.0 14.0
17:39 13.8 13.7 99 1002.6 7.6 NW 9.8 0.0 14.0
17:40 13.7 13.6 99 1002.5 6.9 SE 9.8 0.0 14.0
17:41 13.6 13.5 99 1002.7 6.9 SW 9.8 0.0 14.0
17:43 13.6 13.5 99 1002.7 6.9 SE 9.8 0.0 14.0
17:44 13.5 13.4 99 1002.8 7.6 SSE 8.3 0.0 14.0
17:45 13.5 13.4 99 1002.8 6.0 S 8.3 0.0 14.0
17:46 13.4 13.3 99 1002.7 6.0 S 8.3 0.0 14.0
17:47 13.4 13.3 99 1002.6 5.4 S 8.3 0.0 14.0
17:48 13.3 13.2 99 1002.6 6.0 S 8.3 0.0 14.0
17:49 13.3 13.2 99 1002.6 6.0 S 8.3 0.0 14.0
17:50 13.3 13.2 99 1002.6 6.9 SE 8.3 0.0 14.0
17:51 13.3 13.2 99 1002.7 6.0 S 8.3 0.0 14.0
17:52 13.2 13.1 99 1002.7 8.3 S 8.3 0.0 14.0
17:53 13.2 13.1 99 1002.7 6.0 S 8.3 0.0 14.0
17:54 13.2 13.1 99 1002.6 5.4 S 8.3 0.0 14.0
17:55 13.2 13.1 99 1002.8 6.9 S 8.3 0.0 14.0
17:56 13.2 13.1 99 1002.7 4.5 S 8.3 0.0 14.0
17:57 13.2 13.1 99 1002.8 5.4 S 8.3 0.0 14.0
17:58 13.2 13.1 99 1002.8 7.6 S 8.3 0.0 14.0
17:59 13.2 13.1 99 1003.0 9.8 SE 9.8 0.0 14.0
18:00 13.2 13.1 99 1002.9 10.7 S 10.7 0.0 14.0
18:02 13.2 13.1 99 1002.8 7.6 S 10.7 0.0 14.0
18:03 13.2 13.1 99 1002.8 8.3 SW 10.7 0.0 14.0
18:04 13.2 13.1 99 1002.7 8.3 SE 10.7 0.0 14.0
18:05 13.2 13.1 99 1002.7 6.0 S 10.7 0.0 14.0
18:06 13.2 13.1 99 1002.6 4.5 SE 10.7 0.0 14.0
18:07 13.2 13.1 99 1002.8 6.0 S 10.7 0.0 14.0
18:08 13.2 13.1 99 1002.7 5.4 SE 10.7 0.0 14.0
18:09 13.2 13.1 99 1002.7 5.4 S 10.7 0.0 14.0
18:10 13.1 13.0 99 1002.7 4.5 S 10.7 0.0 14.0
18:11 13.1 13.0 99 1002.7 5.4 SE 8.3 0.0 14.0
18:12 13.1 13.0 99 1002.8 5.4 SE 8.3 0.0 14.0
18:13 13.1 13.0 99 1002.7 3.8 S 8.3 0.0 14.0
18:14 13.1 13.0 99 1002.7 4.5 S 8.3 0.0 14.0
18:15 13.1 13.0 99 1002.7 4.5 SE 6.0 0.0 14.0
18:16 13.0 12.9 99 1002.7 6.9 SE 6.9 0.0 14.0
18:17 13.0 12.9 99 1002.8 6.0 SE 6.9 0.0 14.0
18:18 13.0 12.9 99 1002.7 5.4 SE 6.9 0.0 14.0
18:19 13.0 12.9 99 1002.7 5.4 SE 6.9 0.0 14.0
18:21 13.0 12.9 99 1002.8 6.0 SE 6.9 0.0 14.0
18:22 13.0 12.9 99 1002.8 7.6 SE 7.6 0.0 14.0
18:23 13.0 12.9 99 1002.7 6.0 SW 7.6 0.0 14.0
18:24 13.0 12.9 99 1002.9 7.6 S 7.6 0.0 14.0
18:25 13.0 12.9 99 1002.8 9.8 S 9.8 0.0 14.0
18:26 13.0 12.9 99 1002.9 6.9 SE 9.8 0.0 14.0
18:27 12.9 12.8 99 1002.6 6.9 SE 9.8 0.0 14.0
18:28 13.0 12.9 99 1002.8 5.4 S 9.8 0.0 14.0
18:29 13.0 12.9 99 1002.8 8.3 S 9.8 0.0 14.0
18:30 12.9 12.8 99 1002.7 6.9 S 9.8 0.0 14.0
18:31 13.0 12.9 99 1002.8 8.3 S 9.8 0.0 14.0
18:32 13.0 12.9 99 1002.8 9.2 SE 9.8 0.0 14.0
18:33 13.0 12.9 99 1002.8 8.3 S 9.8 0.0 14.0
18:34 13.0 12.9 99 1002.7 8.3 SE 9.8 0.0 14.0
18:35 13.0 12.9 99 1002.8 7.6 S 9.8 0.0 14.0
18:36 13.0 12.9 99 1002.8 7.6 S 9.2 0.0 14.0
18:37 13.0 12.9 99 1002.8 6.9 S 9.2 0.0 14.0
18:38 13.0 12.9 99 1002.8 6.9 S 9.2 0.0 14.0
18:40 13.0 12.9 99 1002.9 10.7 SE 10.7 0.0 14.0
18:41 13.0 12.9 99 1002.8 9.8 S 10.7 0.0 14.0
18:42 13.0 12.9 99 1002.9 10.7 S 10.7 0.0 14.0
18:43 13.0 12.9 99 1002.8 9.2 SSE 10.7 0.0 14.0
18:44 13.0 12.9 99 1002.9 6.0 SE 10.7 0.0 14.0
18:45 13.0 12.9 99 1002.9 9.2 SE 10.7 0.0 14.0
18:46 13.0 12.9 99 1002.8 8.3 S 10.7 0.0 14.0
18:47 13.0 12.9 99 1002.7 6.0 SE 10.7 0.0 14.0
18:48 13.0 12.9 99 1002.9 8.3 SE 10.7 0.0 14.0
18:49 13.0 12.9 99 1002.9 7.6 SE 10.7 0.0 14.0
18:50 13.0 12.9 99 1002.8 8.3 SE 10.7 0.0 14.0
18:51 13.0 12.9 99 1002.8 8.3 SE 10.7 0.0 14.0
18:52 13.0 12.9 99 1002.8 6.0 S 10.7 0.0 14.0
18:53 12.9 12.8 99 1002.9 7.6 S 9.2 0.0 14.0
18:54 12.9 12.8 99 1002.9 6.0 SE 9.2 0.0 14.0
18:55 12.9 12.8 99 1003.0 9.2 S 9.2 0.0 14.0
18:56 12.9 12.8 99 1003.2 9.2 S 9.2 0.0 14.0
18:57 12.9 12.8 99 1003.1 9.2 SE 9.2 0.0 14.0
18:58 12.8 12.7 99 1003.0 10.7 S 10.7 0.0 14.0
19:00 12.7 12.6 99 1003.2 7.6 SE 10.7 0.0 14.0
19:01 12.7 12.6 99 1003.1 7.6 SE 10.7 0.0 14.0
19:02 12.7 12.6 99 1003.3 7.6 SE 10.7 0.0 14.0
19:03 12.7 12.6 99 1003.0 7.6 SE 10.7 0.0 14.0
19:04 12.7 12.6 99 1003.2 7.6 SE 10.7 0.0 14.0
19:05 12.6 12.5 99 1003.2 8.3 S 10.7 0.0 14.0
19:06 12.6 12.5 99 1003.3 7.6 S 10.7 0.0 14.0
19:07 12.6 12.5 99 1003.2 7.6 SE 10.7 0.0 14.0
19:08 12.6 12.5 99 1003.3 9.2 S 10.7 0.0 14.0
19:09 12.6 12.5 99 1003.3 8.3 SE 10.7 0.0 14.0
19:10 12.6 12.5 99 1003.3 8.3 SE 10.7 0.0 14.0
19:11 12.6 12.5 99 1003.4 8.3 S 10.7 0.0 14.0
19:12 12.6 12.5 99 1003.3 9.2 SE 10.7 0.0 14.0
19:13 12.6 12.5 99 1003.4 9.8 S 10.7 0.0 14.0
19:14 12.6 12.5 99 1003.3 10.7 SE 10.7 0.0 14.0
19:15 12.6 12.5 99 1003.3 10.7 SE 10.7 0.0 14.0
19:16 12.6 12.5 99 1003.3 8.3 SSE 10.7 0.0 14.0
19:17 12.6 12.5 99 1003.4 8.3 S 10.7 0.0 14.0
19:18 12.6 12.5 99 1003.5 6.9 SE 10.7 0.0 14.0
19:19 12.6 12.5 99 1003.5 6.9 SW 10.7 0.0 14.0
19:20 12.6 12.5 99 1003.3 13.6 SSE 13.6 0.0 14.0
19:21 12.6 12.5 99 1003.2 10.7 SE 13.6 0.0 14.0
19:22 12.7 12.6 99 1003.3 9.2 SE 13.6 0.0 14.0
19:23 12.7 12.6 99 1003.2 9.8 SE 13.6 0.0 14.0
19:24 12.6 12.5 99 1003.3 9.2 S 13.6 0.0 14.0
19:26 12.6 12.5 99 1003.3 7.6 SE 13.6 0.0 14.0
19:27 12.6 12.5 99 1003.3 9.8 SE 13.6 0.0 14.0
19:28 12.6 12.5 99 1003.3 10.7 SE 13.6 0.0 14.0
19:29 12.6 12.5 99 1003.6 8.3 SE 13.6 0.0 14.0
19:30 12.6 12.5 99 1003.6 9.2 S 11.4 0.0 14.0
19:31 12.6 12.5 99 1003.5 10.7 SE 11.4 0.0 14.0
19:32 12.6 12.5 99 1003.4 9.2 S 11.4 0.0 14.0
19:33 12.6 12.5 99 1003.4 8.3 SE 11.4 0.0 14.0
19:34 12.5 12.4 99 1003.5 9.8 SE 11.4 0.0 14.0
19:35 12.5 12.4 99 1003.5 9.2 S 11.4 0.0 14.0
19:36 12.5 12.4 99 1003.4 11.4 S 11.4 0.0 14.0
19:37 12.5 12.4 99 1003.6 10.7 SE 11.4 0.0 14.0
19:38 12.5 12.4 99 1003.3 10.7 SE 11.4 0.0 14.0
19:39 12.4 12.3 99 1003.6 9.2 SE 11.4 0.0 14.0
19:40 12.4 12.3 99 1003.6 9.2 SE 11.4 0.0 14.0
19:41 12.4 12.3 99 1003.6 9.2 SE 11.4 0.0 14.0
19:42 12.4 12.3 99 1003.6 12.1 SE 12.1 0.0 14.0
19:43 12.4 12.3 99 1003.5 9.2 SE 12.1 0.0 14.0
19:44 12.4 12.3 99 1003.4 9.8 SE 12.1 0.0 14.0
19:45 12.4 12.3 99 1003.6 9.2 S 12.1 0.0 14.0
19:46 12.4 12.3 99 1003.5 14.5 SE 14.5 0.0 14.0
19:47 12.3 12.2 99 1003.6 11.4 S 14.5 0.0 14.0
19:48 12.3 12.2 99 1003.5 9.8 SE 14.5 0.0 14.0
19:49 12.3 12.2 99 1003.4 10.7 SE 14.5 0.0 14.0
19:50 12.3 12.2 99 1003.6 12.1 S 14.5 0.0 14.0
19:51 12.3 12.2 99 1003.5 9.2 SE 14.5 0.0 14.0
19:53 12.3 12.2 99 1003.5 9.8 SE 14.5 0.0 14.0
19:54 12.3 12.2 99 1003.5 10.7 S 14.5 0.0 14.0
19:55 12.3 12.2 99 1003.5 9.2 S 14.5 0.0 14.0
19:56 12.3 12.2 99 1003.5 9.8 SE 12.1 0.0 14.0
19:57 12.3 12.2 99 1003.4 9.2 SE 12.1 0.0 14.0
19:58 12.3 12.2 99 1003.4 10.7 E 12.1 0.0 14.0
19:59 12.2 12.1 99 1003.4 15.2 SE 15.2 0.0 14.0
20:00 12.3 12.2 99 1003.3 15.2 SE 15.2 0.0 14.0
20:01 12.3 12.2 99 1003.4 15.2 SE 15.2 0.0 14.0
20:02 12.3 12.2 99 1003.2 15.2 SE 15.2 0.0 14.0
20:03 12.3 12.2 99 1003.4 15.2 SE 15.2 0.0 14.0
20:04 12.3 12.2 99 1003.3 15.2 SE 15.2 0.0 14.0
20:05 12.3 12.2 99 1003.3 15.2 SE 15.2 0.0 14.0
20:06 12.4 12.3 99 1003.4 10.7 S 15.2 0.0 14.0
20:07 12.4 12.3 99 1003.4 10.7 S 15.2 0.0 14.0
20:08 12.4 12.3 99 1003.2 12.1 S 15.2 0.0 14.0
20:09 12.4 12.3 99 1003.3 9.8 S 15.2 0.0 14.0
20:10 12.4 12.3 99 1003.2 13.0 SE 15.2 0.0 14.0
20:11 12.4 12.3 99 1003.3 11.4 SE 15.2 0.0 14.0
20:12 12.4 12.3 99 1003.4 13.0 S 15.2 0.0 14.0
20:13 12.5 12.4 99 1003.4 12.1 SE 15.2 0.0 14.0
20:14 12.5 12.4 99 1003.3 11.4 S 15.2 0.0 14.0
20:15 12.5 12.4 99 1003.4 19.0 S 19.0 0.0 14.0
20:16 12.5 12.4 99 1003.3 12.1 S 19.0 0.0 14.0
20:17 12.5 12.4 99 1003.4 15.2 SE 19.0 0.0 14.0
20:18 12.5 12.4 99 1003.3 11.4 SE 19.0 0.0 14.0
20:20 12.6 12.5 99 1003.3 10.7 SE 19.0 0.0 14.0
20:21 12.5 12.4 99 1003.3 9.8 S 19.0 0.0 14.0
20:22 12.6 12.5 99 1003.4 11.4 S 19.0 0.0 14.0
20:23 12.6 12.5 99 1003.4 12.1 SE 19.0 0.0 14.0
20:24 12.6 12.5 99 1003.5 12.1 SE 19.0 0.0 14.0
20:25 12.6 12.5 99 1003.5 15.2 SE 15.2 0.0 14.0
20:26 12.6 12.5 99 1003.4 9.8 S 15.2 0.0 14.0
20:27 12.6 12.5 99 1003.5 8.3 SE 15.2 0.0 14.0
20:28 12.6 12.5 99 1003.5 14.5 SE 15.2 0.0 14.0
20:29 12.6 12.5 99 1003.6 13.6 S 15.2 0.0 14.0
20:30 12.6 12.5 99 1003.5 13.0 S 15.2 0.0 14.0
20:31 12.6 12.5 99 1003.4 11.4 SE 15.2 0.0 14.0
20:32 12.6 12.5 99 1003.5 13.6 SE 15.2 0.0 14.0
20:33 12.6 12.5 99 1003.5 11.4 S 15.2 0.0 14.0
20:34 12.6 12.5 99 1003.5 8.3 SW 15.2 0.0 14.0
20:35 12.6 12.5 99 1003.6 9.2 S 15.2 0.0 14.0
20:36 12.6 12.5 99 1003.6 13.6 S 14.5 0.0 14.0
20:37 12.6 12.5 99 1003.6 8.3 SSE 14.5 0.0 14.0
20:38 12.6 12.5 99 1003.5 9.2 S 14.5 0.0 14.0
20:39 12.6 12.5 99 1003.5 9.8 SE 13.6 0.0 14.0
20:40 12.5 12.4 99 1003.3 10.7 S 13.6 0.0 14.0
20:41 12.5 12.4 99 1003.3 9.8 SE 13.6 0.0 14.0
20:42 12.5 12.4 99 1003.2 8.3 S 13.6 0.0 14.0
20:43 12.5 12.4 99 1003.1 9.8 SE 13.6 0.0 14.0
20:44 12.5 12.4 99 1003.2 11.4 SE 13.6 0.0 14.0
20:45 12.5 12.4 99 1003.2 6.9 SE 13.6 0.0 14.0
20:47 12.4 12.3 99 1003.2 9.2 SE 11.4 0.0 14.0
20:48 12.4 12.3 99 1003.2 9.2 S 11.4 0.0 14.0
20:49 12.4 12.3 99 1003.2 11.4 SE 11.4 0.0 14.0
20:50 12.3 12.2 99 1003.3 10.7 SW 11.4 0.0 14.0
20:51 12.3 12.2 99 1003.4 10.7 SE 11.4 0.0 14.0
20:52 12.3 12.2 99 1003.3 10.7 S 11.4 0.0 14.0
20:53 12.3 12.2 99 1003.3 9.8 SE 11.4 0.0 14.0
20:54 12.3 12.2 99 1003.2 11.4 SE 11.4 0.0 14.0
20:55 12.3 12.2 99 1003.3 8.3 SE 11.4 0.0 14.0
20:56 12.2 12.1 99 1003.1 9.2 S 11.4 0.0 14.0
20:57 12.2 12.1 99 1003.1 7.6 SE 11.4 0.0 14.0
20:58 12.2 12.1 99 1003.2 8.3 SE 11.4 0.0 14.0
20:59 12.2 12.1 99 1003.2 14.5 SE 14.5 0.0 14.0
21:00 12.1 12.0 99 1003.3 10.7 S 14.5 0.0 14.0
21:01 12.1 12.0 99 1003.2 10.7 S 14.5 0.0 14.0
21:02 12.1 12.0 99 1003.3 10.7 S 14.5 0.0 14.0
21:03 12.1 12.0 99 1003.1 10.7 S 14.5 0.0 14.0
21:04 12.1 12.0 99 1003.2 10.7 S 14.5 0.0 14.0
21:05 12.1 12.0 99 1003.2 10.7 S 14.5 0.0 14.0
21:06 12.1 12.0 99 1003.2 9.2 S 14.5 0.0 14.0
21:07 12.1 12.0 99 1003.1 10.7 SE 14.5 0.0 14.0
21:08 12.1 12.0 99 1003.3 12.1 SE 14.5 0.0 14.0
21:09 12.1 12.0 99 1003.2 12.1 S 14.5 0.0 14.0
21:10 12.2 12.1 99 1003.2 13.0 S 13.0 0.0 14.0
21:11 12.2 12.1 99 1003.2 12.1 SE 13.0 0.0 14.0
21:12 12.2 12.1 99 1003.3 14.5 SE 14.5 0.0 14.0
21:13 12.2 12.1 99 1003.2 7.6 S 14.5 0.0 14.0
21:14 12.2 12.1 99 1003.2 9.8 SE 14.5 0.0 14.0
21:15 12.2 12.1 99 1003.1 12.1 SSE 14.5 0.0 14.0
21:16 12.2 12.1 99 1003.1 9.2 SE 14.5 0.0 14.0
21:17 12.2 12.1 99 1003.0 15.9 S 15.9 0.0 14.0
21:18 12.2 12.1 99 1002.9 13.0 SE 15.9 0.0 14.0
21:19 12.2 12.1 99 1002.8 12.1 SE 15.9 0.0 14.0
21:20 12.2 12.1 99 1002.6 9.8 SE 15.9 0.0 14.0
21:21 12.2 12.1 99 1002.6 9.8 ESE 15.9 0.0 14.0
21:22 12.2 12.1 99 1002.8 9.2 S 15.9 0.0 14.0
21:23 12.2 12.1 99 1002.8 11.4 SE 15.9 0.0 14.0
21:24 12.2 12.1 99 1003.0 9.2 SE 15.9 0.0 14.0
21:25 12.2 12.1 99 1003.0 8.3 SE 15.9 0.0 14.0
21:26 12.2 12.1 99 1003.1 10.7 S 15.9 0.0 14.0
21:27 12.2 12.1 99 1003.2 10.7 S 13.0 0.0 14.0
21:28 12.2 12.1 99 1003.2 10.7 SE 12.1 0.0 14.0
21:29 12.2 12.1 99 1003.1 13.6 S 13.6 0.0 14.0
21:30 12.2 12.1 99 1003.0 9.8 SE 13.6 0.0 14.0
21:31 12.2 12.1 99 1003.1 11.4 SE 13.6 0.0 14.0
21:32 12.2 12.1 99 1003.2 7.6 SE 13.6 0.0 14.0
21:33 12.2 12.1 99 1003.3 9.2 SE 13.6 0.0 14.0
21:34 12.1 12.0 99 1003.3 8.3 SE 13.6 0.0 14.0
21:35 12.1 12.0 99 1003.3 9.8 S 13.6 0.0 14.0
21:36 12.2 12.1 99 1003.3 12.1 E 13.6 0.0 14.0
21:37 12.2 12.1 99 1003.4 10.7 S 13.6 0.0 14.0
21:38 12.2 12.1 99 1003.2 10.7 S 13.6 0.0 14.0
21:39 12.2 12.1 99 1003.1 14.5 S 14.5 0.0 14.0
21:40 12.2 12.1 99 1003.3 12.1 E 14.5 0.0 14.0
21:41 12.2 12.1 99 1003.3 11.4 SE 14.5 0.0 14.0
21:42 12.2 12.1 99 1003.3 9.8 SE 14.5 0.0 14.0
21:43 12.2 12.1 99 1003.3 13.0 S 14.5 0.0 14.0
21:44 12.2 12.1 99 1003.4 10.7 S 14.5 0.0 14.0
21:45 12.2 12.1 99 1003.4 13.6 SE 14.5 0.0 14.0
21:46 12.2 12.1 99 1003.4 11.4 S 14.5 0.0 14.0
21:47 12.2 12.1 99 1003.5 14.5 S 14.5 0.0 14.0
21:48 12.2 12.1 99 1003.4 11.4 E 14.5 0.0 14.0
21:49 12.3 12.2 99 1003.3 15.2 SE 15.2 0.0 14.0
21:50 12.2 12.1 99 1003.3 11.4 S 15.2 0.0 14.0
21:51 12.2 12.1 99 1003.2 11.4 SE 15.2 0.0 14.0
21:52 12.3 12.2 99 1003.3 9.8 SE 15.2 0.0 14.0
21:53 12.2 12.1 99 1003.4 11.4 SE 15.2 0.0 14.0
21:54 12.3 12.2 99 1003.3 14.5 SE 15.2 0.0 14.0
21:55 12.3 12.2 99 1003.3 13.0 SE 15.2 0.0 14.0
21:56 12.2 12.1 99 1003.2 11.4 SE 15.2 0.0 14.0
21:57 12.3 12.2 99 1003.2 13.0 S 15.2 0.0 14.0
21:58 12.3 12.2 99 1003.2 11.4 S 15.2 0.0 14.0
21:59 12.2 12.1 99 1003.2 13.0 S 14.5 0.0 14.0
22:00 12.2 12.1 99 1003.2 12.1 S 14.5 0.0 14.0
22:01 12.2 12.1 99 1003.2 12.1 S 14.5 0.0 14.0
22:02 12.2 12.1 99 1003.2 12.1 S 14.5 0.0 14.0
22:03 12.2 12.1 99 1003.1 12.1 S 14.5 0.0 14.0
22:04 12.2 12.1 99 1003.2 12.1 S 14.5 0.0 14.0
22:05 12.2 12.1 99 1003.1 10.7 SE 13.0 0.0 14.0
22:06 12.2 12.1 99 1002.9 13.6 S 13.6 0.0 14.0
22:07 12.2 12.1 99 1002.9 13.6 S 13.6 0.0 14.0
22:08 12.2 12.1 99 1002.8 12.1 SE 15.2 0.0 14.0
22:09 12.2 12.1 99 1002.9 12.1 SE 15.2 0.0 14.0
22:10 12.2 12.1 99 1003.1 10.7 SE 15.2 0.0 14.0
22:11 12.2 12.1 99 1003.1 15.9 SE 15.9 0.0 14.0
22:12 12.2 12.1 99 1003.1 10.7 S 15.9 0.0 14.0
22:13 12.2 12.1 99 1002.9 13.0 SE 15.9 0.0 14.0
22:14 12.2 12.1 99 1002.9 13.6 S 15.9 0.0 14.0
22:15 12.2 12.1 99 1003.1 9.2 SE 15.9 0.0 14.0
22:16 12.1 12.0 99 1003.1 11.4 SE 15.9 0.0 14.0
22:17 12.1 12.0 99 1003.2 8.3 SE 15.9 0.0 14.0
22:18 12.1 12.0 99 1003.1 11.4 SE 15.9 0.0 14.0
22:19 12.1 12.0 99 1003.3 12.1 S 15.9 0.0 14.0
22:20 12.2 12.1 99 1003.3 9.8 SE 15.9 0.0 14.0
22:21 12.1 12.0 99 1003.3 12.1 S 13.6 0.0 14.0
22:22 12.1 12.0 99 1003.2 12.1 S 13.6 0.0 14.0
22:23 12.1 12.0 99 1003.3 11.4 ESE 13.6 0.0 14.0
22:24 12.1 12.0 99 1003.2 14.5 SE 14.5 0.0 14.0
22:25 12.1 12.0 99 1003.3 13.0 SE 14.5 0.0 14.0
22:26 12.1 12.0 99 1003.2 11.4 SE 14.5 0.0 14.0
22:27 12.2 12.1 99 1003.1 9.2 SE 14.5 0.0 14.0
22:28 12.2 12.1 99 1003.3 9.8 S 14.5 0.0 14.0
22:29 12.1 12.0 99 1003.3 11.4 S 14.5 0.0 14.0
22:30 12.2 12.1 99 1003.2 12.1 SE 14.5 0.0 14.0
22:31 12.2 12.1 99 1003.4 12.1 S 14.5 0.0 14.0
22:32 12.1 12.0 99 1003.4 10.7 SE 14.5 0.0 14.0
22:33 12.1 12.0 99 1003.5 9.8 S 14.5 0.0 14.0
22:34 12.2 12.1 99 1003.5 12.1 SE 13.0 0.0 14.0
22:35 12.2 12.1 99 1003.5 12.1 SE 13.0 0.0 14.0
22:36 12.1 12.0 99 1003.4 14.5 E 15.9 0.0 14.0
22:37 12.2 12.1 99 1003.5 15.2 SE 15.9 0.0 14.0
22:38 12.2 12.1 99 1003.4 11.4 SE 15.9 0.0 14.0
22:39 12.2 12.1 99 1003.4 7.6 S 15.9 0.0 14.0
22:40 12.2 12.1 99 1003.7 20.6 S 20.6 0.0 14.0
22:41 12.2 12.1 99 1003.5 15.9 SE 20.6 0.0 14.0
22:42 12.2 12.1 99 1003.6 14.5 SE 20.6 0.0 14.0
22:43 12.2 12.1 99 1003.6 10.7 S 20.6 0.0 14.0
22:44 12.2 12.1 99 1003.5 13.0 SE 20.6 0.0 14.0
22:45 12.2 12.1 99 1003.4 15.9 SE 20.6 0.0 14.0
22:46 12.3 12.2 99 1003.3 11.4 SE 20.6 0.0 14.0
22:47 12.3 12.2 99 1003.4 11.4 SE 20.6 0.0 14.0
22:48 12.3 12.2 99 1003.3 11.4 SE 20.6 0.0 14.0
22:49 12.3 12.2 99 1003.2 15.2 S 20.6 0.0 14.0
22:50 12.3 12.2 99 1003.2 16.8 SE 16.8 0.0 14.0
22:51 12.3 12.2 99 1003.2 13.0 SE 16.8 0.0 14.0
22:52 12.3 12.2 99 1003.1 10.7 SE 16.8 0.0 14.0
22:53 12.3 12.2 99 1003.2 13.6 SE 16.8 0.0 14.0
22:54 12.3 12.2 99 1003.1 14.5 SE 16.8 0.0 14.0
22:55 12.3 12.2 99 1003.2 13.6 SE 16.8 0.0 14.0
22:56 12.3 12.2 99 1003.2 10.7 SE 16.8 0.0 14.0
22:57 12.3 12.2 99 1003.2 8.3 SE 16.8 0.0 14.0
22:58 12.3 12.2 99 1003.1 9.2 S 16.8 0.0 14.0
22:59 12.3 12.2 99 1003.2 11.4 S 16.8 0.0 14.0
23:00 12.3 12.2 99 1003.4 14.5 SE 16.8 0.0 14.0
23:01 12.3 12.2 99 1003.2 10.7 SE 14.5 0.0 14.0
23:02 12.3 12.2 99 1003.3 13.6 SE 14.5 0.0 14.0
23:03 12.3 12.2 99 1003.3 13.6 SE 14.5 0.0 14.0
23:04 12.3 12.2 99 1003.2 14.5 S 14.5 0.0 14.0
23:05 12.4 12.3 99 1003.1 11.4 SE 14.5 0.0 14.0
23:06 12.4 12.3 99 1002.9 14.5 SE 14.5 0.0 14.0
23:07 12.4 12.3 99 1003.1 10.7 S 14.5 0.0 14.0
23:08 12.4 12.3 99 1003.0 18.3 SE 18.3 0.0 14.0
23:09 12.4 12.3 99 1002.8 12.1 E 18.3 0.0 14.0
23:10 12.4 12.3 99 1002.9 16.8 E 18.3 0.0 14.0
23:11 12.4 12.3 99 1002.9 10.7 SE 18.3 0.0 14.0
23:12 12.4 12.3 99 1002.9 9.8 SE 18.3 0.0 14.0
23:13 12.4 12.3 99 1002.9 17.4 SE 18.3 0.0 14.0
23:14 12.4 12.3 99 1002.9 12.1 SE 18.3 0.0 14.0
23:15 12.4 12.3 99 1003.1 15.9 S 18.3 0.0 14.0
23:16 12.5 12.4 99 1002.8 15.2 SE 18.3 0.0 14.0
23:17 12.5 12.4 99 1002.8 13.0 S 18.3 0.0 14.0
23:18 12.5 12.4 99 1002.8 13.0 S 18.3 0.0 14.0
23:19 12.5 12.4 99 1002.9 11.4 SE 17.4 0.0 14.0
23:20 12.5 12.4 99 1002.8 16.8 SE 17.4 0.0 14.0
23:21 12.5 12.4 99 1002.9 20.6 SE 20.6 0.0 14.0
23:22 12.5 12.4 99 1002.9 14.5 S 20.6 0.0 14.0
23:23 12.5 12.4 99 1002.7 13.6 NE 20.6 0.0 14.0
23:24 12.6 12.5 99 1002.8 19.7 SE 20.6 0.0 14.0
23:25 12.6 12.5 99 1002.6 19.7 SE 20.6 0.0 14.0
23:26 12.6 12.5 99 1002.8 21.3 E 21.3 0.0 14.0
23:27 12.6 12.5 99 1002.8 16.8 SE 21.3 0.0 14.0
23:28 12.6 12.5 99 1002.7 16.8 SE 21.3 0.0 14.0
23:29 12.6 12.5 99 1002.6 12.1 SE 21.3 0.0 14.0
23:30 12.6 12.5 99 1002.7 16.8 SE 21.3 0.0 14.0
23:31 12.6 12.5 99 1002.6 15.2 S 21.3 0.0 14.0
23:32 12.7 12.6 99 1002.5 10.7 SE 21.3 0.0 14.0
23:33 12.7 12.6 99 1002.5 15.9 SE 21.3 0.0 14.0
23:34 12.7 12.6 99 1002.5 15.2 SE 21.3 0.0 14.0
23:35 12.7 12.6 99 1002.6 15.9 SE 21.3 0.0 14.0
23:36 12.7 12.6 99 1002.5 19.0 SE 19.0 0.0 14.0
23:37 12.7 12.6 99 1002.4 14.5 SE 19.0 0.0 14.0
23:38 12.7 12.6 99 1002.3 15.2 SE 19.0 0.0 14.0
23:39 12.7 12.6 99 1002.4 16.8 SE 19.0 0.0 14.0
23:40 12.8 12.7 99 1002.4 14.5 SE 19.0 0.0 14.0
23:41 12.7 12.6 99 1002.4 13.0 E 19.0 0.0 14.0
23:42 12.8 12.7 99 1002.5 20.6 SE 20.6 0.0 14.0
23:43 12.8 12.7 99 1002.6 19.0 SE 20.6 0.0 14.0
23:44 12.8 12.7 99 1002.4 13.0 S 20.6 0.0 14.0
23:45 12.8 12.7 99 1002.4 18.3 SE 20.6 0.0 14.0
23:46 12.8 12.7 99 1002.4 18.3 SE 20.6 0.0 14.0
23:47 12.8 12.7 99 1002.4 13.6 SE 20.6 0.0 14.0
23:48 12.8 12.7 99 1002.3 19.0 S 20.6 0.0 14.0
23:49 12.8 12.7 99 1002.3 18.3 SE 20.6 0.0 14.0
23:50 12.8 12.7 99 1002.3 15.2 SE 20.6 0.0 14.0
23:51 12.8 12.7 99 1002.2 19.0 SE 20.6 0.0 14.0
23:52 12.8 12.7 99 1002.3 18.3 SE 20.6 0.0 14.0
23:53 12.9 12.8 99 1002.3 19.0 SE 20.6 0.0 14.0
23:54 12.8 12.7 99 1002.3 17.4 SE 20.6 0.0 14.0
23:55 12.9 12.8 99 1002.3 14.5 E 20.6 0.0 14.0
23:56 12.9 12.8 99 1002.3 22.1 SE 22.1 0.0 14.0
23:57 12.9 12.8 99 1002.0 22.1 SE 22.1 0.0 14.0
23:58 12.9 12.8 99 1002.1 22.1 SE 22.1 0.0 14.0
23:59 12.9 12.8 99 1002.3 13.6 S 22.1 0.0 14.0

UK - WEATHER STATION TOPSITES - UK World Weather Websites

This is a private weather station, never base important decisions or events on data from this weather station. Although every effort has been made to make the data as accurate as possible it does not meet MetOffice standards. It is proved as a guide of local weather conditions. We accept no liability for any loss which may arise from use of the data.

Copyright © Carnkie Weather 2009 - 2018.